Wetterdaten: Sonntag, 21.10.2018
Datum Zeit Temp. Aussen Temp. o. S. +5cm Feuchte Auss Luftdruck Regen Sonnenschein Regendauer Solar Windben Empfang
21.10.2018 00:00 5,8 C 4,4 C 5,0 C 89 % 1028,8 hPa 0,0 l/m 0 min 0 min 0 W/m 0,0 km/h (0 Bft) 95,74 %
21.10.2018 00:02 5,8 C 5,0 C 5,0 C 89 % 1028,6 hPa 0,0 l/m 0 min 0 min 0 W/m 0,0 km/h (0 Bft) 95,65 %
21.10.2018 00:04 5,8 C 4,4 C 5,0 C 89 % 1028,7 hPa 0,0 l/m 0 min 0 min 0 W/m 0,0 km/h (0 Bft) 95,74 %
21.10.2018 00:08 5,7 C 4,4 C 5,0 C 89 % 1028,6 hPa 0,0 l/m 0 min 0 min 0 W/m 0,0 km/h (0 Bft) 95,74 %
21.10.2018 00:10 5,7 C 4,4 C 5,0 C 89 % 1028,6 hPa 0,0 l/m 0 min 0 min 0 W/m 0,0 km/h (0 Bft) 97,87 %
21.10.2018 00:12 5,7 C 4,4 C 4,4 C 89 % 1028,6 hPa 0,0 l/m 0 min 0 min 0 W/m 0,0 km/h (0 Bft) 97,87 %
21.10.2018 00:14 5,7 C 4,4 C 4,4 C 89 % 1028,7 hPa 0,0 l/m 0 min 0 min 0 W/m 0,0 km/h (0 Bft) 97,83 %
21.10.2018 00:16 5,6 C 4,4 C 4,4 C 89 % 1028,7 hPa 0,0 l/m 0 min 0 min 0 W/m 0,0 km/h (0 Bft) 97,87 %
21.10.2018 00:18 5,6 C 3,9 C 4,4 C 89 % 1028,8 hPa 0,0 l/m 0 min 0 min 0 W/m 0,0 km/h (0 Bft) 97,87 %
21.10.2018 00:20 5,6 C 3,9 C 4,4 C 89 % 1028,8 hPa 0,0 l/m 0 min 0 min 0 W/m 0,0 km/h (0 Bft) 97,87 %
21.10.2018 00:22 5,6 C 3,9 C 4,4 C 89 % 1028,8 hPa 0,0 l/m 0 min 0 min 0 W/m 0,0 km/h (0 Bft) 97,87 %
21.10.2018 00:24 5,5 C 3,9 C 4,4 C 89 % 1028,8 hPa 0,0 l/m 0 min 0 min 0 W/m 0,0 km/h (0 Bft) 97,87 %
21.10.2018 00:26 5,5 C 3,9 C 4,4 C 89 % 1028,8 hPa 0,0 l/m 0 min 0 min 0 W/m 0,0 km/h (0 Bft) 100,00 %
21.10.2018 00:28 5,4 C 3,9 C 4,4 C 89 % 1028,8 hPa 0,0 l/m 0 min 0 min 0 W/m 0,0 km/h (0 Bft) 100,00 %
21.10.2018 00:30 5,4 C 3,9 C 4,4 C 89 % 1028,8 hPa 0,0 l/m 0 min 0 min 0 W/m 0,0 km/h (0 Bft) 100,00 %
21.10.2018 00:32 5,4 C 3,9 C 4,4 C 89 % 1028,8 hPa 0,0 l/m 0 min 0 min 0 W/m 0,0 km/h (0 Bft) 97,30 %
21.10.2018 00:34 5,4 C 3,9 C 4,4 C 89 % 1028,7 hPa 0,0 l/m 0 min 0 min 0 W/m 0,0 km/h (0 Bft) 100,00 %
21.10.2018 00:38 5,3 C 3,9 C 4,4 C 89 % 1028,8 hPa 0,0 l/m 0 min 0 min 0 W/m 0,0 km/h (0 Bft) 98,92 %
21.10.2018 00:40 5,3 C 3,9 C 4,4 C 89 % 1028,7 hPa 0,0 l/m 0 min 0 min 0 W/m 0,0 km/h (0 Bft) 100,00 %
21.10.2018 00:42 5,3 C 4,4 C 4,4 C 89 % 1028,7 hPa 0,0 l/m 0 min 0 min 0 W/m 0,0 km/h (0 Bft) 97,87 %
21.10.2018 00:44 5,2 C 4,4 C 4,4 C 89 % 1028,7 hPa 0,0 l/m 0 min 0 min 0 W/m 0,0 km/h (0 Bft) 100,00 %
21.10.2018 00:46 5,2 C 4,4 C 4,4 C 89 % 1028,8 hPa 0,0 l/m 0 min 0 min 0 W/m 0,0 km/h (0 Bft) 97,87 %
21.10.2018 00:48 5,2 C 3,9 C 4,4 C 89 % 1028,6 hPa 0,0 l/m 0 min 0 min 0 W/m 0,0 km/h (0 Bft) 100,00 %
21.10.2018 00:50 5,2 C 3,9 C 4,4 C 89 % 1028,6 hPa 0,0 l/m 0 min 0 min 0 W/m 0,0 km/h (0 Bft) 100,00 %
21.10.2018 00:52 5,1 C 3,9 C 4,4 C 89 % 1028,6 hPa 0,0 l/m 0 min 0 min 0 W/m 0,0 km/h (0 Bft) 100,00 %
21.10.2018 00:54 5,1 C 3,9 C 4,4 C 90 % 1028,6 hPa 0,0 l/m 0 min 0 min 0 W/m 0,0 km/h (0 Bft) 100,00 %
21.10.2018 00:56 5,1 C 3,9 C 4,4 C 90 % 1028,6 hPa 0,0 l/m 0 min 0 min 0 W/m 0,0 km/h (0 Bft) 100,00 %
21.10.2018 00:58 5,1 C 3,9 C 4,4 C 89 % 1028,6 hPa 0,0 l/m 0 min 0 min 0 W/m 0,0 km/h (0 Bft) 100,00 %
21.10.2018 01:00 5,1 C 3,9 C 4,4 C 89 % 1028,5 hPa 0,0 l/m 0 min 0 min 0 W/m 0,0 km/h (0 Bft) 97,87 %
21.10.2018 01:02 5,0 C 3,9 C 4,4 C 90 % 1028,6 hPa 0,0 l/m 0 min 0 min 0 W/m 0,0 km/h (0 Bft) 97,87 %
21.10.2018 01:04 5,0 C 3,9 C 4,4 C 90 % 1028,5 hPa 0,0 l/m 0 min 0 min 0 W/m 0,0 km/h (0 Bft) 97,87 %
21.10.2018 01:08 4,9 C 3,9 C 3,9 C 90 % 1028,6 hPa 0,0 l/m 0 min 0 min 0 W/m 0,0 km/h (0 Bft) 96,81 %
21.10.2018 01:10 4,9 C 3,9 C 4,4 C 90 % 1028,5 hPa 0,0 l/m 0 min 0 min 0 W/m 0,0 km/h (0 Bft) 97,83 %
21.10.2018 01:12 4,9 C 3,9 C 4,4 C 90 % 1028,5 hPa 0,0 l/m 0 min 0 min 0 W/m 0,0 km/h (0 Bft) 95,74 %
21.10.2018 01:14 4,9 C 3,9 C 3,9 C 90 % 1028,5 hPa 0,0 l/m 0 min 0 min 0 W/m 0,0 km/h (0 Bft) 95,74 %
21.10.2018 01:16 4,8 C 3,9 C 3,9 C 90 % 1028,5 hPa 0,0 l/m 0 min 0 min 0 W/m 0,0 km/h (0 Bft) 97,87 %
21.10.2018 01:18 4,8 C 3,9 C 3,9 C 90 % 1028,5 hPa 0,0 l/m 0 min 0 min 0 W/m 0,0 km/h (0 Bft) 97,87 %
21.10.2018 01:20 4,8 C 3,9 C 3,9 C 90 % 1028,5 hPa 0,0 l/m 0 min 0 min 0 W/m 0,0 km/h (0 Bft) 96,55 %
21.10.2018 01:22 4,8 C 4,4 C 3,9 C 90 % 1028,4 hPa 0,0 l/m 0 min 0 min 0 W/m 0,0 km/h (0 Bft) 97,22 %
21.10.2018 01:24 4,7 C 4,4 C 3,9 C 90 % 1028,4 hPa 0,0 l/m 0 min 0 min 0 W/m 0,0 km/h (0 Bft) 93,48 %
21.10.2018 01:26 4,7 C 4,4 C 4,4 C 90 % 1028,4 hPa 0,0 l/m 0 min 0 min 0 W/m 0,0 km/h (0 Bft) 95,74 %
21.10.2018 01:28 4,7 C 4,4 C 4,4 C 90 % 1028,5 hPa 0,0 l/m 0 min 0 min 0 W/m 0,0 km/h (0 Bft) 93,62 %
21.10.2018 01:30 4,7 C 3,9 C 4,4 C 90 % 1028,5 hPa 0,0 l/m 0 min 0 min 0 W/m 0,0 km/h (0 Bft) 95,74 %
21.10.2018 01:32 4,7 C 3,9 C 3,9 C 90 % 1028,5 hPa 0,0 l/m 0 min 0 min 0 W/m 0,0 km/h (0 Bft) 95,74 %
21.10.2018 01:34 4,7 C 3,9 C 3,9 C 90 % 1028,5 hPa 0,0 l/m 0 min 0 min 0 W/m 0,0 km/h (0 Bft) 95,65 %
21.10.2018 01:38 4,6 C 3,9 C 3,9 C 91 % 1028,5 hPa 0,0 l/m 0 min 0 min 0 W/m 0,0 km/h (0 Bft) 93,62 %
21.10.2018 01:40 4,6 C 3,9 C 3,9 C 91 % 1028,5 hPa 0,0 l/m 0 min 0 min 0 W/m 0,0 km/h (0 Bft) 91,49 %
21.10.2018 01:42 4,6 C 3,9 C 3,9 C 91 % 1028,4 hPa 0,0 l/m 0 min 0 min 0 W/m 0,0 km/h (0 Bft) 95,74 %
21.10.2018 01:44 4,6 C 3,9 C 3,9 C 91 % 1028,4 hPa 0,0 l/m 0 min 0 min 0 W/m 0,0 km/h (0 Bft) 95,74 %
21.10.2018 01:46 4,6 C 3,9 C 3,9 C 91 % 1028,4 hPa 0,0 l/m 0 min 0 min 0 W/m 0,0 km/h (0 Bft) 93,48 %
21.10.2018 01:48 4,6 C 3,9 C 3,9 C 91 % 1028,4 hPa 0,0 l/m 0 min 0 min 0 W/m 0,0 km/h (0 Bft) 95,74 %
21.10.2018 01:50 4,6 C 3,9 C 3,9 C 91 % 1028,4 hPa 0,0 l/m 0 min 0 min 0 W/m 0,0 km/h (0 Bft) 95,74 %
21.10.2018 01:52 4,6 C 3,9 C 3,9 C 91 % 1028,4 hPa 0,0 l/m 0 min 0 min 0 W/m 0,0 km/h (0 Bft) 95,74 %
21.10.2018 01:54 4,5 C 3,9 C 3,9 C 91 % 1028,4 hPa 0,0 l/m 0 min 0 min 0 W/m 0,0 km/h (0 Bft) 95,74 %
21.10.2018 01:56 4,5 C 3,9 C 3,9 C 91 % 1028,4 hPa 0,0 l/m 0 min 0 min 0 W/m 0,0 km/h (0 Bft) 97,87 %
21.10.2018 01:58 4,5 C 3,9 C 3,9 C 91 % 1028,3 hPa 0,0 l/m 0 min 0 min 0 W/m 0,0 km/h (0 Bft) 97,83 %
21.10.2018 02:00 4,5 C 3,3 C 3,9 C 91 % 1028,4 hPa 0,0 l/m 0 min 0 min 0 W/m 0,0 km/h (0 Bft) 97,87 %
21.10.2018 02:02 4,4 C 3,3 C 3,9 C 91 % 1028,4 hPa 0,0 l/m 0 min 0 min 0 W/m 0,0 km/h (0 Bft) 100,00 %
21.10.2018 02:04 4,4 C 3,3 C 3,9 C 91 % 1028,3 hPa 0,0 l/m 0 min 0 min 0 W/m 0,0 km/h (0 Bft) 95,74 %
21.10.2018 02:08 4,4 C 3,3 C 3,9 C 91 % 1028,3 hPa 0,0 l/m 0 min 0 min 0 W/m 0,0 km/h (0 Bft) 97,87 %
21.10.2018 02:10 4,4 C 3,3 C 3,9 C 91 % 1028,3 hPa 0,0 l/m 0 min 0 min 0 W/m 0,0 km/h (0 Bft) 97,83 %
21.10.2018 02:12 4,4 C 3,3 C 3,9 C 91 % 1028,2 hPa 0,0 l/m 0 min 0 min 0 W/m 0,0 km/h (0 Bft) 97,87 %
21.10.2018 02:14 4,4 C 3,3 C 3,9 C 91 % 1028,2 hPa 0,0 l/m 0 min 0 min 0 W/m 0,0 km/h (0 Bft) 95,74 %
21.10.2018 02:16 4,3 C 3,3 C 3,9 C 91 % 1028,1 hPa 0,0 l/m 0 min 0 min 0 W/m 0,0 km/h (0 Bft) 97,92 %
21.10.2018 02:18 4,3 C 3,3 C 3,9 C 91 % 1028,2 hPa 0,0 l/m 0 min 0 min 0 W/m 0,0 km/h (0 Bft) 97,87 %
21.10.2018 02:20 4,3 C 3,3 C 3,9 C 91 % 1028,2 hPa 0,0 l/m 0 min 0 min 0 W/m 0,0 km/h (0 Bft) 97,83 %
21.10.2018 02:22 4,3 C 3,3 C 3,9 C 91 % 1028,2 hPa 0,0 l/m 0 min 0 min 0 W/m 0,0 km/h (0 Bft) 97,87 %
21.10.2018 02:24 4,3 C 3,3 C 3,9 C 91 % 1028,2 hPa 0,0 l/m 0 min 0 min 0 W/m 0,0 km/h (0 Bft) 97,87 %
21.10.2018 02:26 4,3 C 3,3 C 3,9 C 91 % 1028,2 hPa 0,0 l/m 0 min 0 min 0 W/m 0,0 km/h (0 Bft) 95,74 %
21.10.2018 02:28 4,2 C 3,3 C 3,3 C 91 % 1028,1 hPa 0,0 l/m 0 min 0 min 0 W/m 0,0 km/h (0 Bft) 97,87 %
21.10.2018 02:30 4,2 C 3,3 C 3,3 C 91 % 1028,2 hPa 0,0 l/m 0 min 0 min 0 W/m 0,0 km/h (0 Bft) 97,87 %
21.10.2018 02:32 4,2 C 3,3 C 3,9 C 91 % 1028,1 hPa 0,0 l/m 0 min 0 min 0 W/m 0,0 km/h (0 Bft) 100,00 %
21.10.2018 02:34 4,2 C 3,3 C 3,3 C 91 % 1028,1 hPa 0,0 l/m 0 min 0 min 0 W/m 0,0 km/h (0 Bft) 100,00 %
21.10.2018 02:38 4,2 C 3,3 C 3,3 C 92 % 1028,1 hPa 0,0 l/m 0 min 0 min 0 W/m 0,0 km/h (0 Bft) 97,87 %
21.10.2018 02:40 4,1 C 3,3 C 3,3 C 92 % 1028,2 hPa 0,0 l/m 0 min 0 min 0 W/m 0,0 km/h (0 Bft) 95,74 %
21.10.2018 02:42 4,1 C 3,3 C 3,3 C 91 % 1028,2 hPa 0,0 l/m 0 min 0 min 0 W/m 0,0 km/h (0 Bft) 97,87 %
21.10.2018 02:44 4,1 C 3,3 C 3,3 C 91 % 1028,1 hPa 0,0 l/m 0 min 0 min 0 W/m 0,0 km/h (0 Bft) 97,83 %
21.10.2018 02:46 4,1 C 3,3 C 3,3 C 92 % 1028,2 hPa 0,0 l/m 0 min 0 min 0 W/m 0,0 km/h (0 Bft) 95,74 %
21.10.2018 02:48 4,1 C 3,3 C 3,3 C 92 % 1028,2 hPa 0,0 l/m 0 min 0 min 0 W/m 0,0 km/h (0 Bft) 95,74 %
21.10.2018 02:50 4,1 C 3,3 C 3,3 C 92 % 1028,2 hPa 0,0 l/m 0 min 0 min 0 W/m 0,0 km/h (0 Bft) 95,74 %
21.10.2018 02:52 4,1 C 3,3 C 3,3 C 92 % 1028,3 hPa 0,0 l/m 0 min 0 min 0 W/m 0,0 km/h (0 Bft) 93,62 %
21.10.2018 02:54 4,0 C 3,3 C 3,3 C 92 % 1028,3 hPa 0,0 l/m 0 min 0 min 0 W/m 0,0 km/h (0 Bft) 97,83 %
21.10.2018 02:56 4,0 C 3,3 C 3,3 C 92 % 1028,3 hPa 0,0 l/m 0 min 0 min 0 W/m 0,0 km/h (0 Bft) 97,87 %
21.10.2018 02:58 4,0 C 3,3 C 3,3 C 92 % 1028,3 hPa 0,0 l/m 0 min 0 min 0 W/m 0,0 km/h (0 Bft) 97,87 %
21.10.2018 03:00 3,9 C 3,3 C 3,3 C 92 % 1028,3 hPa 0,0 l/m 0 min 0 min 0 W/m 0,0 km/h (0 Bft) 93,62 %
21.10.2018 03:02 3,9 C 3,3 C 3,3 C 92 % 1028,2 hPa 0,0 l/m 0 min 0 min 0 W/m 0,0 km/h (0 Bft) 95,74 %
21.10.2018 03:04 3,9 C 3,3 C 3,9 C 92 % 1028,1 hPa 0,0 l/m 0 min 0 min 0 W/m 0,0 km/h (0 Bft) 93,62 %
21.10.2018 03:08 3,9 C 3,3 C 3,9 C 92 % 1028,2 hPa 0,0 l/m 0 min 0 min 0 W/m 3,2 km/h (1 Bft) 97,85 %
21.10.2018 03:10 3,9 C 3,3 C 3,9 C 92 % 1028,1 hPa 0,0 l/m 0 min 0 min 0 W/m 0,0 km/h (0 Bft) 95,74 %
21.10.2018 03:12 3,9 C 3,3 C 3,9 C 92 % 1028,0 hPa 0,0 l/m 0 min 0 min 0 W/m 0,0 km/h (0 Bft) 95,74 %
21.10.2018 03:14 3,9 C 3,3 C 3,9 C 92 % 1028,1 hPa 0,0 l/m 0 min 0 min 0 W/m 0,0 km/h (0 Bft) 95,74 %
21.10.2018 03:16 3,9 C 3,3 C 3,3 C 92 % 1028,1 hPa 0,0 l/m 0 min 0 min 0 W/m 0,0 km/h (0 Bft) 91,49 %
21.10.2018 03:18 3,9 C 3,3 C 3,3 C 92 % 1028,1 hPa 0,0 l/m 0 min 0 min 0 W/m 0,0 km/h (0 Bft) 95,65 %
21.10.2018 03:20 3,9 C 3,3 C 3,3 C 92 % 1028,1 hPa 0,0 l/m 0 min 0 min 0 W/m 0,0 km/h (0 Bft) 93,62 %
21.10.2018 03:22 3,9 C 3,3 C 3,3 C 92 % 1028,1 hPa 0,0 l/m 0 min 0 min 0 W/m 0,0 km/h (0 Bft) 95,74 %
21.10.2018 03:24 3,9 C 3,3 C 3,3 C 92 % 1028,1 hPa 0,0 l/m 0 min 0 min 0 W/m 0,0 km/h (0 Bft) 95,74 %
21.10.2018 03:26 3,9 C 3,3 C 3,3 C 92 % 1028,1 hPa 0,0 l/m 0 min 0 min 0 W/m 0,0 km/h (0 Bft) 95,74 %
21.10.2018 03:28 3,8 C 3,3 C 3,9 C 92 % 1028,2 hPa 0,0 l/m 0 min 0 min 0 W/m 0,0 km/h (0 Bft) 97,87 %
21.10.2018 03:30 3,9 C 3,9 C 3,9 C 92 % 1028,1 hPa 0,0 l/m 0 min 0 min 0 W/m 0,0 km/h (0 Bft) 97,83 %
21.10.2018 03:32 3,9 C 3,9 C 3,9 C 92 % 1028,2 hPa 0,0 l/m 0 min 0 min 0 W/m 0,0 km/h (0 Bft) 95,83 %
21.10.2018 03:34 3,9 C 3,9 C 3,9 C 92 % 1028,2 hPa 0,0 l/m 0 min 0 min 0 W/m 0,0 km/h (0 Bft) 97,87 %
21.10.2018 03:38 3,9 C 3,3 C 3,9 C 93 % 1028,2 hPa 0,0 l/m 0 min 0 min 0 W/m 0,0 km/h (0 Bft) 96,81 %
21.10.2018 03:40 3,9 C 3,3 C 3,3 C 93 % 1028,2 hPa 0,0 l/m 0 min 0 min 0 W/m 0,0 km/h (0 Bft) 95,74 %
21.10.2018 03:42 3,9 C 3,3 C 3,3 C 93 % 1028,2 hPa 0,0 l/m 0 min 0 min 0 W/m 0,0 km/h (0 Bft) 97,83 %
21.10.2018 03:44 3,9 C 3,3 C 3,3 C 93 % 1028,3 hPa 0,0 l/m 0 min 0 min 0 W/m 0,0 km/h (0 Bft) 97,87 %
21.10.2018 03:46 3,9 C 3,3 C 3,3 C 93 % 1028,3 hPa 0,0 l/m 0 min 0 min 0 W/m 0,0 km/h (0 Bft) 95,83 %
21.10.2018 03:48 3,9 C 3,3 C 3,3 C 93 % 1028,3 hPa 0,0 l/m 0 min 0 min 0 W/m 0,0 km/h (0 Bft) 100,00 %
21.10.2018 03:50 3,9 C 3,3 C 3,3 C 93 % 1028,2 hPa 0,0 l/m 0 min 0 min 0 W/m 0,0 km/h (0 Bft) 97,87 %
21.10.2018 03:52 3,9 C 3,3 C 3,3 C 93 % 1028,2 hPa 0,0 l/m 0 min 0 min 0 W/m 0,0 km/h (0 Bft) 100,00 %
21.10.2018 03:54 3,9 C 3,3 C 3,3 C 93 % 1028,2 hPa 0,0 l/m 0 min 0 min 0 W/m 0,0 km/h (0 Bft) 100,00 %
21.10.2018 03:56 3,9 C 3,3 C 3,3 C 93 % 1028,2 hPa 0,0 l/m 0 min 0 min 0 W/m 0,0 km/h (0 Bft) 100,00 %
21.10.2018 03:58 3,9 C 3,3 C 3,3 C 93 % 1028,1 hPa 0,0 l/m 0 min 0 min 0 W/m 0,0 km/h (0 Bft) 100,00 %
21.10.2018 04:00 3,9 C 2,8 C 3,3 C 93 % 1028,2 hPa 0,0 l/m 0 min 0 min 0 W/m 0,0 km/h (0 Bft) 100,00 %
21.10.2018 04:05 3,8 C 2,8 C 3,3 C 93 % 1028,1 hPa 0,0 l/m 0 min 0 min 0 W/m 0,0 km/h (0 Bft) 100,00 %
21.10.2018 04:06 3,8 C 2,8 C 3,3 C 93 % 1028,1 hPa 0,0 l/m 0 min 0 min 0 W/m 0,0 km/h (0 Bft) 95,83 %
21.10.2018 04:08 3,8 C 2,8 C 3,3 C 93 % 1028,1 hPa 0,0 l/m 0 min 0 min 0 W/m 0,0 km/h (0 Bft) 100,00 %
21.10.2018 04:10 3,8 C 2,8 C 3,3 C 93 % 1028,1 hPa 0,0 l/m 0 min 0 min 0 W/m 0,0 km/h (0 Bft) 100,00 %
21.10.2018 04:12 3,8 C 2,8 C 3,3 C 93 % 1028,1 hPa 0,0 l/m 0 min 0 min 0 W/m 0,0 km/h (0 Bft) 100,00 %
21.10.2018 04:14 3,8 C 2,8 C 2,8 C 93 % 1028,1 hPa 0,0 l/m 0 min 0 min 0 W/m 0,0 km/h (0 Bft) 97,87 %
21.10.2018 04:16 3,8 C 2,8 C 2,8 C 93 % 1028,2 hPa 0,0 l/m 0 min 0 min 0 W/m 0,0 km/h (0 Bft) 100,00 %
21.10.2018 04:18 3,8 C 2,8 C 2,8 C 93 % 1028,2 hPa 0,0 l/m 0 min 0 min 0 W/m 0,0 km/h (0 Bft) 97,83 %
21.10.2018 04:20 3,7 C 2,8 C 2,8 C 93 % 1028,3 hPa 0,0 l/m 0 min 0 min 0 W/m 0,0 km/h (0 Bft) 100,00 %
21.10.2018 04:22 3,7 C 2,8 C 2,8 C 93 % 1028,3 hPa 0,0 l/m 0 min 0 min 0 W/m 0,0 km/h (0 Bft) 97,87 %
21.10.2018 04:24 3,7 C 2,8 C 3,3 C 93 % 1028,3 hPa 0,0 l/m 0 min 0 min 0 W/m 0,0 km/h (0 Bft) 100,00 %
21.10.2018 04:26 3,7 C 2,8 C 3,3 C 93 % 1028,2 hPa 0,0 l/m 0 min 0 min 0 W/m 0,0 km/h (0 Bft) 100,00 %
21.10.2018 04:28 3,7 C 2,8 C 3,3 C 93 % 1028,2 hPa 0,0 l/m 0 min 0 min 0 W/m 0,0 km/h (0 Bft) 100,00 %
21.10.2018 04:30 3,7 C 2,8 C 3,3 C 93 % 1028,1 hPa 0,0 l/m 0 min 0 min 0 W/m 0,0 km/h (0 Bft) 100,00 %
21.10.2018 04:32 3,7 C 2,8 C 3,3 C 93 % 1028,2 hPa 0,0 l/m 0 min 0 min 0 W/m 0,0 km/h (0 Bft) 100,00 %
21.10.2018 04:34 3,6 C 2,8 C 3,3 C 93 % 1028,1 hPa 0,0 l/m 0 min 0 min 0 W/m 0,0 km/h (0 Bft) 100,00 %
21.10.2018 04:38 3,6 C 3,3 C 3,3 C 93 % 1028,0 hPa 0,0 l/m 0 min 0 min 0 W/m 0,0 km/h (0 Bft) 98,82 %
21.10.2018 04:40 3,6 C 3,3 C 3,3 C 93 % 1028,1 hPa 0,0 l/m 0 min 0 min 0 W/m 0,0 km/h (0 Bft) 100,00 %
21.10.2018 04:42 3,6 C 2,8 C 3,3 C 93 % 1028,1 hPa 0,0 l/m 0 min 0 min 0 W/m 0,0 km/h (0 Bft) 97,87 %
21.10.2018 04:44 3,6 C 2,8 C 3,3 C 93 % 1028,1 hPa 0,0 l/m 0 min 0 min 0 W/m 0,0 km/h (0 Bft) 100,00 %
21.10.2018 04:46 3,6 C 2,8 C 2,8 C 93 % 1028,1 hPa 0,0 l/m 0 min 0 min 0 W/m 0,0 km/h (0 Bft) 100,00 %
21.10.2018 04:48 3,5 C 2,8 C 2,8 C 93 % 1028,1 hPa 0,0 l/m 0 min 0 min 0 W/m 0,0 km/h (0 Bft) 97,87 %
21.10.2018 04:50 3,5 C 2,8 C 2,8 C 93 % 1028,1 hPa 0,0 l/m 0 min 0 min 0 W/m 0,0 km/h (0 Bft) 100,00 %
21.10.2018 04:52 3,5 C 2,8 C 2,8 C 93 % 1028,1 hPa 0,0 l/m 0 min 0 min 0 W/m 0,0 km/h (0 Bft) 100,00 %
21.10.2018 04:54 3,5 C 2,8 C 2,8 C 93 % 1028,1 hPa 0,0 l/m 0 min 0 min 0 W/m 0,0 km/h (0 Bft) 100,00 %
21.10.2018 04:56 3,5 C 2,8 C 2,8 C 93 % 1028,1 hPa 0,0 l/m 0 min 0 min 0 W/m 0,0 km/h (0 Bft) 100,00 %
21.10.2018 04:58 3,4 C 2,8 C 2,8 C 93 % 1028,1 hPa 0,0 l/m 0 min 0 min 0 W/m 0,0 km/h (0 Bft) 100,00 %
21.10.2018 05:00 3,4 C 2,8 C 2,8 C 93 % 1028,0 hPa 0,0 l/m 0 min 0 min 0 W/m 0,0 km/h (0 Bft) 97,87 %
21.10.2018 05:02 3,4 C 2,8 C 2,8 C 93 % 1028,0 hPa 0,0 l/m 0 min 0 min 0 W/m 0,0 km/h (0 Bft) 97,87 %
21.10.2018 05:04 3,4 C 2,8 C 2,8 C 93 % 1027,9 hPa 0,0 l/m 0 min 0 min 0 W/m 0,0 km/h (0 Bft) 97,87 %
21.10.2018 05:05 3,4 C 2,8 C 2,8 C 93 % 1027,9 hPa 0,0 l/m 0 min 0 min 0 W/m 0,0 km/h (0 Bft) 100,00 %
21.10.2018 05:10 3,4 C 3,3 C 3,3 C 93 % 1027,7 hPa 0,0 l/m 0 min 0 min 0 W/m 0,0 km/h (0 Bft) 100,00 %
21.10.2018 05:12 3,4 C 3,3 C 3,3 C 93 % 1027,7 hPa 0,0 l/m 0 min 0 min 0 W/m 0,0 km/h (0 Bft) 100,00 %
21.10.2018 05:14 3,4 C 3,3 C 3,3 C 93 % 1027,7 hPa 0,0 l/m 0 min 0 min 0 W/m 0,0 km/h (0 Bft) 100,00 %
21.10.2018 05:16 3,4 C 3,3 C 3,3 C 94 % 1027,7 hPa 0,0 l/m 0 min 0 min 0 W/m 0,0 km/h (0 Bft) 95,74 %
21.10.2018 05:18 3,4 C 3,3 C 3,3 C 94 % 1027,7 hPa 0,0 l/m 0 min 0 min 0 W/m 0,0 km/h (0 Bft) 97,87 %
21.10.2018 05:20 3,4 C 3,3 C 3,3 C 94 % 1027,6 hPa 0,0 l/m 0 min 0 min 0 W/m 3,2 km/h (1 Bft) 97,87 %
21.10.2018 05:22 3,4 C 3,9 C 3,3 C 94 % 1027,5 hPa 0,0 l/m 0 min 0 min 0 W/m 3,2 km/h (1 Bft) 95,74 %
21.10.2018 05:24 3,4 C 3,9 C 3,3 C 94 % 1027,6 hPa 0,0 l/m 0 min 0 min 0 W/m 0,0 km/h (0 Bft) 97,87 %
21.10.2018 05:26 3,4 C 3,9 C 3,3 C 94 % 1027,6 hPa 0,0 l/m 0 min 0 min 0 W/m 0,0 km/h (0 Bft) 97,83 %
21.10.2018 05:28 3,4 C 3,9 C 3,3 C 94 % 1027,6 hPa 0,0 l/m 0 min 0 min 0 W/m 0,0 km/h (0 Bft) 100,00 %
21.10.2018 05:30 3,5 C 3,9 C 3,9 C 94 % 1027,6 hPa 0,0 l/m 0 min 0 min 0 W/m 3,2 km/h (1 Bft) 95,74 %
21.10.2018 05:32 3,5 C 3,9 C 3,9 C 94 % 1027,6 hPa 0,0 l/m 0 min 0 min 0 W/m 3,2 km/h (1 Bft) 97,87 %
21.10.2018 05:34 3,6 C 3,9 C 3,9 C 94 % 1027,6 hPa 0,0 l/m 0 min 0 min 0 W/m 6,4 km/h (2 Bft) 93,62 %
21.10.2018 05:38 3,7 C 4,4 C 3,9 C 94 % 1027,7 hPa 0,0 l/m 0 min 0 min 0 W/m 3,2 km/h (1 Bft) 94,62 %
21.10.2018 05:40 3,8 C 4,4 C 4,4 C 94 % 1027,6 hPa 0,0 l/m 0 min 0 min 0 W/m 3,2 km/h (1 Bft) 95,74 %
21.10.2018 05:42 3,8 C 4,4 C 4,4 C 94 % 1027,6 hPa 0,0 l/m 0 min 0 min 0 W/m 3,2 km/h (1 Bft) 91,49 %
21.10.2018 05:44 3,9 C 4,4 C 4,4 C 95 % 1027,6 hPa 0,0 l/m 0 min 0 min 0 W/m 0,0 km/h (0 Bft) 100,00 %
21.10.2018 05:46 3,9 C 4,4 C 4,4 C 95 % 1027,6 hPa 0,0 l/m 0 min 0 min 0 W/m 0,0 km/h (0 Bft) 97,87 %
21.10.2018 05:48 4,0 C 4,4 C 4,4 C 95 % 1027,6 hPa 0,0 l/m 0 min 0 min 0 W/m 3,2 km/h (1 Bft) 97,87 %
21.10.2018 05:50 4,1 C 4,4 C 4,4 C 95 % 1027,6 hPa 0,0 l/m 0 min 0 min 0 W/m 3,2 km/h (1 Bft) 95,65 %
21.10.2018 05:52 4,1 C 4,4 C 4,4 C 95 % 1027,6 hPa 0,0 l/m 0 min 0 min 0 W/m 3,2 km/h (1 Bft) 93,62 %
21.10.2018 05:54 4,1 C 4,4 C 4,4 C 95 % 1027,6 hPa 0,0 l/m 0 min 0 min 0 W/m 6,4 km/h (2 Bft) 95,74 %
21.10.2018 05:56 4,2 C 4,4 C 4,4 C 95 % 1027,6 hPa 0,0 l/m 0 min 0 min 0 W/m 0,0 km/h (0 Bft) 93,62 %
21.10.2018 05:58 4,2 C 3,9 C 4,4 C 95 % 1027,6 hPa 0,0 l/m 0 min 0 min 0 W/m 0,0 km/h (0 Bft) 93,62 %
21.10.2018 06:00 4,2 C 4,4 C 4,4 C 95 % 1027,7 hPa 0,0 l/m 0 min 0 min 0 W/m 3,2 km/h (1 Bft) 91,30 %
21.10.2018 06:02 4,3 C 4,4 C 4,4 C 95 % 1027,6 hPa 0,0 l/m 0 min 0 min 0 W/m 3,2 km/h (1 Bft) 95,74 %
21.10.2018 06:04 4,3 C 3,9 C 3,9 C 95 % 1027,6 hPa 0,0 l/m 0 min 0 min 0 W/m 0,0 km/h (0 Bft) 95,74 %
21.10.2018 06:08 4,3 C 4,4 C 3,9 C 95 % 1027,6 hPa 0,0 l/m 0 min 0 min 0 W/m 3,2 km/h (1 Bft) 95,74 %
21.10.2018 06:10 4,3 C 4,4 C 3,9 C 95 % 1027,6 hPa 0,0 l/m 0 min 0 min 0 W/m 0,0 km/h (0 Bft) 95,74 %
21.10.2018 06:12 4,4 C 4,4 C 3,9 C 95 % 1027,6 hPa 0,0 l/m 0 min 0 min 0 W/m 0,0 km/h (0 Bft) 95,65 %
21.10.2018 06:14 4,4 C 4,4 C 3,9 C 95 % 1027,5 hPa 0,0 l/m 0 min 0 min 0 W/m 3,2 km/h (1 Bft) 93,62 %
21.10.2018 06:16 4,4 C 4,4 C 3,9 C 95 % 1027,4 hPa 0,0 l/m 0 min 0 min 0 W/m 6,4 km/h (2 Bft) 95,74 %
21.10.2018 06:18 4,4 C 4,4 C 3,9 C 95 % 1027,4 hPa 0,0 l/m 0 min 0 min 0 W/m 3,2 km/h (1 Bft) 97,87 %
21.10.2018 06:20 4,4 C 4,4 C 4,4 C 95 % 1027,6 hPa 0,0 l/m 0 min 0 min 0 W/m 3,2 km/h (1 Bft) 97,87 %
21.10.2018 06:22 4,5 C 4,4 C 4,4 C 95 % 1027,6 hPa 0,0 l/m 0 min 0 min 0 W/m 3,2 km/h (1 Bft) 95,74 %
21.10.2018 06:24 4,5 C 4,4 C 4,4 C 95 % 1027,5 hPa 0,0 l/m 0 min 0 min 0 W/m 3,2 km/h (1 Bft) 97,83 %
21.10.2018 06:26 4,5 C 4,4 C 4,4 C 95 % 1027,6 hPa 0,0 l/m 0 min 0 min 0 W/m 0,0 km/h (0 Bft) 95,74 %
21.10.2018 06:28 4,5 C 4,4 C 4,4 C 95 % 1027,5 hPa 0,0 l/m 0 min 0 min 0 W/m 3,2 km/h (1 Bft) 95,74 %
21.10.2018 06:30 4,6 C 4,4 C 4,4 C 95 % 1027,4 hPa 0,0 l/m 0 min 0 min 0 W/m 6,4 km/h (2 Bft) 93,62 %
21.10.2018 06:32 4,6 C 4,4 C 4,4 C 95 % 1027,4 hPa 0,0 l/m 0 min 0 min 0 W/m 6,4 km/h (2 Bft) 97,87 %
21.10.2018 06:34 4,6 C 4,4 C 4,4 C 95 % 1027,4 hPa 0,0 l/m 0 min 0 min 0 W/m 6,4 km/h (2 Bft) 97,87 %
21.10.2018 06:38 4,6 C 4,4 C 4,4 C 96 % 1027,4 hPa 0,0 l/m 0 min 0 min 0 W/m 6,4 km/h (2 Bft) 96,77 %
21.10.2018 06:40 4,6 C 4,4 C 4,4 C 96 % 1027,4 hPa 0,0 l/m 0 min 0 min 0 W/m 3,2 km/h (1 Bft) 97,87 %
21.10.2018 06:42 4,6 C 4,4 C 4,4 C 96 % 1027,4 hPa 0,0 l/m 0 min 0 min 0 W/m 3,2 km/h (1 Bft) 97,87 %
21.10.2018 06:44 4,7 C 4,4 C 4,4 C 96 % 1027,5 hPa 0,0 l/m 0 min 0 min 0 W/m 6,4 km/h (2 Bft) 98,11 %
21.10.2018 06:46 4,7 C 4,4 C 4,4 C 96 % 1027,5 hPa 0,0 l/m 0 min 0 min 0 W/m 3,2 km/h (1 Bft) 97,87 %
21.10.2018 06:48 4,7 C 4,4 C 4,4 C 96 % 1027,5 hPa 0,0 l/m 0 min 0 min 0 W/m 6,4 km/h (2 Bft) 95,74 %
21.10.2018 06:50 4,7 C 4,4 C 4,4 C 96 % 1027,5 hPa 0,0 l/m 0 min 0 min 0 W/m 6,4 km/h (2 Bft) 95,74 %
21.10.2018 06:52 4,7 C 3,9 C 4,4 C 96 % 1027,5 hPa 0,0 l/m 0 min 0 min 0 W/m 3,2 km/h (1 Bft) 97,83 %
21.10.2018 06:54 4,7 C 3,9 C 4,4 C 96 % 1027,5 hPa 0,0 l/m 0 min 0 min 0 W/m 3,2 km/h (1 Bft) 100,00 %
21.10.2018 06:56 4,7 C 3,9 C 4,4 C 96 % 1027,4 hPa 0,0 l/m 0 min 0 min 0 W/m 3,2 km/h (1 Bft) 100,00 %
21.10.2018 06:58 4,7 C 3,9 C 4,4 C 96 % 1027,4 hPa 0,0 l/m 0 min 0 min 0 W/m 3,2 km/h (1 Bft) 100,00 %
21.10.2018 07:00 4,7 C 3,9 C 4,4 C 96 % 1027,3 hPa 0,0 l/m 0 min 0 min 0 W/m 0,0 km/h (0 Bft) 97,87 %
21.10.2018 07:02 4,7 C 3,9 C 4,4 C 96 % 1027,3 hPa 0,0 l/m 0 min 0 min 0 W/m 3,2 km/h (1 Bft) 97,87 %
21.10.2018 07:04 4,7 C 3,9 C 4,4 C 96 % 1027,4 hPa 0,0 l/m 0 min 0 min 0 W/m 3,2 km/h (1 Bft) 100,00 %
21.10.2018 07:08 4,7 C 3,9 C 4,4 C 96 % 1027,4 hPa 0,0 l/m 0 min 0 min 0 W/m 6,4 km/h (2 Bft) 98,94 %
21.10.2018 07:10 4,7 C 3,9 C 4,4 C 96 % 1027,4 hPa 0,0 l/m 0 min 0 min 0 W/m 3,2 km/h (1 Bft) 95,74 %
21.10.2018 07:12 4,7 C 4,4 C 4,4 C 96 % 1027,4 hPa 0,0 l/m 0 min 0 min 0 W/m 0,0 km/h (0 Bft) 100,00 %
21.10.2018 07:14 4,7 C 3,9 C 4,4 C 96 % 1027,4 hPa 0,0 l/m 0 min 0 min 0 W/m 0,0 km/h (0 Bft) 100,00 %
21.10.2018 07:16 4,7 C 3,9 C 4,4 C 96 % 1027,4 hPa 0,0 l/m 0 min 0 min 0 W/m 0,0 km/h (0 Bft) 97,83 %
21.10.2018 07:18 4,7 C 3,9 C 4,4 C 96 % 1027,4 hPa 0,0 l/m 0 min 0 min 0 W/m 0,0 km/h (0 Bft) 97,87 %
21.10.2018 07:20 4,6 C 3,9 C 4,4 C 96 % 1027,4 hPa 0,0 l/m 0 min 0 min 0 W/m 3,2 km/h (1 Bft) 97,87 %
21.10.2018 07:22 4,6 C 3,9 C 4,4 C 96 % 1027,4 hPa 0,0 l/m 0 min 0 min 0 W/m 3,2 km/h (1 Bft) 97,22 %
21.10.2018 07:24 4,6 C 3,9 C 4,4 C 96 % 1027,4 hPa 0,0 l/m 0 min 0 min 0 W/m 3,2 km/h (1 Bft) 97,92 %
21.10.2018 07:26 4,6 C 3,9 C 3,9 C 96 % 1027,4 hPa 0,0 l/m 0 min 0 min 0 W/m 6,4 km/h (2 Bft) 97,87 %
21.10.2018 07:28 4,6 C 3,9 C 3,9 C 96 % 1027,4 hPa 0,0 l/m 0 min 0 min 0 W/m 3,2 km/h (1 Bft) 97,87 %
21.10.2018 07:30 4,6 C 3,9 C 3,9 C 96 % 1027,4 hPa 0,0 l/m 0 min 0 min 0 W/m 3,2 km/h (1 Bft) 97,87 %
21.10.2018 07:32 4,6 C 3,9 C 3,9 C 96 % 1027,3 hPa 0,0 l/m 0 min 0 min 0 W/m 3,2 km/h (1 Bft) 97,83 %
21.10.2018 07:34 4,6 C 3,9 C 3,9 C 96 % 1027,4 hPa 0,0 l/m 0 min 0 min 0 W/m 3,2 km/h (1 Bft) 95,74 %
21.10.2018 07:38 4,6 C 3,9 C 3,9 C 96 % 1027,3 hPa 0,0 l/m 0 min 0 min 0 W/m 0,0 km/h (0 Bft) 97,87 %
21.10.2018 07:40 4,6 C 3,9 C 3,9 C 96 % 1027,3 hPa 0,0 l/m 0 min 0 min 0 W/m 0,0 km/h (0 Bft) 97,87 %
21.10.2018 07:42 4,6 C 3,9 C 3,9 C 96 % 1027,3 hPa 0,0 l/m 0 min 0 min 0 W/m 0,0 km/h (0 Bft) 97,83 %
21.10.2018 07:44 4,6 C 3,9 C 3,9 C 96 % 1027,4 hPa 0,0 l/m 0 min 0 min 0 W/m 0,0 km/h (0 Bft) 95,74 %
21.10.2018 07:46 4,6 C 3,9 C 3,9 C 96 % 1027,4 hPa 0,0 l/m 0 min 0 min 0 W/m 3,2 km/h (1 Bft) 97,87 %
21.10.2018 07:48 4,6 C 3,9 C 3,9 C 96 % 1027,4 hPa 0,0 l/m 0 min 0 min 0 W/m 0,0 km/h (0 Bft) 97,87 %
21.10.2018 07:50 4,5 C 3,9 C 3,9 C 96 % 1027,5 hPa 0,0 l/m 0 min 0 min 0 W/m 0,0 km/h (0 Bft) 93,10 %
21.10.2018 07:52 4,5 C 3,9 C 3,9 C 96 % 1027,5 hPa 0,0 l/m 0 min 0 min 0 W/m 0,0 km/h (0 Bft) 97,22 %
21.10.2018 07:54 4,5 C 3,9 C 3,9 C 96 % 1027,5 hPa 0,0 l/m 0 min 0 min 0 W/m 0,0 km/h (0 Bft) 97,83 %
21.10.2018 07:56 4,5 C 3,9 C 3,9 C 96 % 1027,5 hPa 0,0 l/m 0 min 0 min 0 W/m 0,0 km/h (0 Bft) 97,87 %
21.10.2018 07:58 4,5 C 3,9 C 3,9 C 96 % 1027,5 hPa 0,0 l/m 0 min 0 min 0 W/m 0,0 km/h (0 Bft) 97,87 %
21.10.2018 08:00 4,4 C 3,9 C 3,9 C 96 % 1027,5 hPa 0,0 l/m 0 min 0 min 0 W/m 0,0 km/h (0 Bft) 100,00 %
21.10.2018 08:02 4,4 C 3,9 C 3,9 C 96 % 1027,5 hPa 0,0 l/m 0 min 0 min 0 W/m 0,0 km/h (0 Bft) 100,00 %
21.10.2018 08:04 4,4 C 3,9 C 3,9 C 96 % 1027,5 hPa 0,0 l/m 0 min 0 min 0 W/m 0,0 km/h (0 Bft) 100,00 %
21.10.2018 08:08 4,4 C 3,9 C 3,9 C 96 % 1027,4 hPa 0,0 l/m 0 min 0 min 4 W/m 0,0 km/h (0 Bft) 100,00 %
21.10.2018 08:10 4,4 C 3,9 C 3,9 C 96 % 1027,5 hPa 0,0 l/m 0 min 0 min 5 W/m 3,2 km/h (1 Bft) 100,00 %
21.10.2018 08:12 4,4 C 3,9 C 3,9 C 96 % 1027,5 hPa 0,0 l/m 0 min 0 min 6 W/m 0,0 km/h (0 Bft) 97,87 %
21.10.2018 08:14 4,4 C 3,9 C 3,9 C 96 % 1027,5 hPa 0,0 l/m 0 min 0 min 7 W/m 3,2 km/h (1 Bft) 100,00 %
21.10.2018 08:16 4,4 C 3,9 C 3,9 C 96 % 1027,5 hPa 0,0 l/m 0 min 0 min 7 W/m 0,0 km/h (0 Bft) 95,74 %
21.10.2018 08:18 4,4 C 3,9 C 3,9 C 96 % 1027,4 hPa 0,0 l/m 0 min 0 min 9 W/m 0,0 km/h (0 Bft) 97,83 %
21.10.2018 08:20 4,4 C 3,9 C 3,9 C 96 % 1027,4 hPa 0,0 l/m 0 min 0 min 9 W/m 0,0 km/h (0 Bft) 97,87 %
21.10.2018 08:22 4,4 C 3,9 C 3,9 C 96 % 1027,4 hPa 0,0 l/m 0 min 0 min 10 W/m 3,2 km/h (1 Bft) 97,87 %
21.10.2018 08:24 4,4 C 3,9 C 3,9 C 96 % 1027,5 hPa 0,0 l/m 0 min 0 min 11 W/m 0,0 km/h (0 Bft) 97,87 %
21.10.2018 08:26 4,4 C 3,9 C 3,9 C 96 % 1027,4 hPa 0,0 l/m 0 min 0 min 12 W/m 3,2 km/h (1 Bft) 95,74 %
21.10.2018 08:28 4,4 C 3,9 C 3,9 C 96 % 1027,5 hPa 0,0 l/m 0 min 0 min 12 W/m 3,2 km/h (1 Bft) 97,87 %
21.10.2018 08:30 4,4 C 3,9 C 3,9 C 96 % 1027,5 hPa 0,0 l/m 0 min 0 min 13 W/m 3,2 km/h (1 Bft) 95,65 %
21.10.2018 08:32 4,4 C 3,9 C 3,9 C 96 % 1027,4 hPa 0,0 l/m 0 min 0 min 14 W/m 3,2 km/h (1 Bft) 93,62 %
21.10.2018 08:34 4,4 C 3,9 C 3,9 C 96 % 1027,4 hPa 0,0 l/m 0 min 0 min 16 W/m 3,2 km/h (1 Bft) 93,62 %
21.10.2018 08:38 4,4 C 3,9 C 3,9 C 96 % 1027,5 hPa 0,0 l/m 0 min 0 min 17 W/m 3,2 km/h (1 Bft) 97,87 %
21.10.2018 08:40 4,4 C 3,9 C 4,4 C 96 % 1027,5 hPa 0,0 l/m 0 min 0 min 18 W/m 6,4 km/h (2 Bft) 97,87 %
21.10.2018 08:42 4,4 C 3,9 C 4,4 C 96 % 1027,5 hPa 0,0 l/m 0 min 0 min 18 W/m 3,2 km/h (1 Bft) 95,65 %
21.10.2018 08:44 4,4 C 4,4 C 4,4 C 96 % 1027,5 hPa 0,0 l/m 0 min 0 min 19 W/m 6,4 km/h (2 Bft) 97,87 %
21.10.2018 08:46 4,4 C 4,4 C 4,4 C 96 % 1027,5 hPa 0,0 l/m 0 min 0 min 19 W/m 3,2 km/h (1 Bft) 97,87 %
21.10.2018 08:48 4,4 C 4,4 C 4,4 C 96 % 1027,6 hPa 0,0 l/m 0 min 0 min 21 W/m 6,4 km/h (2 Bft) 97,87 %
21.10.2018 08:50 4,4 C 4,4 C 4,4 C 96 % 1027,5 hPa 0,0 l/m 0 min 0 min 21 W/m 3,2 km/h (1 Bft) 96,55 %
21.10.2018 08:52 4,4 C 4,4 C 4,4 C 96 % 1027,5 hPa 0,0 l/m 0 min 0 min 22 W/m 9,7 km/h (2 Bft) 97,14 %
21.10.2018 08:54 4,4 C 4,4 C 4,4 C 96 % 1027,5 hPa 0,0 l/m 0 min 0 min 23 W/m 6,4 km/h (2 Bft) 97,87 %
21.10.2018 08:56 4,4 C 4,4 C 4,4 C 96 % 1027,5 hPa 0,0 l/m 0 min 0 min 23 W/m 3,2 km/h (1 Bft) 97,87 %
21.10.2018 08:58 4,5 C 4,4 C 4,4 C 96 % 1027,5 hPa 0,0 l/m 0 min 0 min 25 W/m 6,4 km/h (2 Bft) 95,74 %
21.10.2018 09:00 4,5 C 4,4 C 4,4 C 96 % 1027,5 hPa 0,0 l/m 0 min 0 min 25 W/m 9,7 km/h (2 Bft) 97,87 %
21.10.2018 09:02 4,5 C 4,4 C 4,4 C 96 % 1027,5 hPa 0,0 l/m 0 min 0 min 26 W/m 6,4 km/h (2 Bft) 100,00 %
21.10.2018 09:04 4,6 C 4,4 C 4,4 C 96 % 1027,6 hPa 0,0 l/m 0 min 0 min 26 W/m 6,4 km/h (2 Bft) 97,83 %
21.10.2018 09:08 4,6 C 4,4 C 5,0 C 96 % 1027,6 hPa 0,0 l/m 0 min 0 min 28 W/m 6,4 km/h (2 Bft) 98,94 %
21.10.2018 09:10 4,6 C 4,4 C 5,0 C 96 % 1027,6 hPa 0,0 l/m 0 min 0 min 28 W/m 6,4 km/h (2 Bft) 100,00 %
21.10.2018 09:12 4,6 C 4,4 C 5,0 C 96 % 1027,6 hPa 0,0 l/m 0 min 0 min 30 W/m 3,2 km/h (1 Bft) 97,87 %
21.10.2018 09:14 4,6 C 5,0 C 5,0 C 96 % 1027,7 hPa 0,0 l/m 0 min 0 min 30 W/m 6,4 km/h (2 Bft) 100,00 %
21.10.2018 09:16 4,7 C 5,0 C 5,0 C 96 % 1027,7 hPa 0,0 l/m 0 min 0 min 31 W/m 6,4 km/h (2 Bft) 95,65 %
21.10.2018 09:18 4,7 C 5,0 C 5,0 C 96 % 1027,7 hPa 0,0 l/m 0 min 0 min 32 W/m 3,2 km/h (1 Bft) 100,00 %
21.10.2018 09:20 4,7 C 5,0 C 5,0 C 96 % 1027,7 hPa 0,0 l/m 0 min 0 min 32 W/m 6,4 km/h (2 Bft) 97,87 %
21.10.2018 09:22 4,7 C 5,0 C 5,0 C 96 % 1027,6 hPa 0,0 l/m 0 min 0 min 32 W/m 3,2 km/h (1 Bft) 100,00 %
21.10.2018 09:24 4,8 C 5,0 C 5,0 C 96 % 1027,7 hPa 0,0 l/m 0 min 0 min 32 W/m 6,4 km/h (2 Bft) 100,00 %
21.10.2018 09:26 4,8 C 5,0 C 5,0 C 97 % 1027,6 hPa 0,0 l/m 0 min 0 min 33 W/m 9,7 km/h (2 Bft) 100,00 %
21.10.2018 09:28 4,8 C 5,6 C 5,0 C 97 % 1027,6 hPa 0,0 l/m 0 min 0 min 33 W/m 6,4 km/h (2 Bft) 97,83 %
21.10.2018 09:30 4,9 C 5,6 C 5,0 C 97 % 1027,6 hPa 0,0 l/m 0 min 0 min 33 W/m 6,4 km/h (2 Bft) 97,87 %
21.10.2018 09:32 4,9 C 5,6 C 5,0 C 96 % 1027,6 hPa 0,0 l/m 0 min 0 min 33 W/m 6,4 km/h (2 Bft) 100,00 %
21.10.2018 09:34 5,0 C 5,6 C 5,6 C 96 % 1027,7 hPa 0,0 l/m 0 min 0 min 33 W/m 9,7 km/h (2 Bft) 100,00 %
21.10.2018 09:38 5,1 C 5,6 C 5,6 C 97 % 1027,7 hPa 0,0 l/m 0 min 0 min 33 W/m 12,9 km/h (3 Bft) 98,94 %
21.10.2018 09:40 5,2 C 5,6 C 5,6 C 97 % 1027,7 hPa 0,0 l/m 0 min 0 min 33 W/m 3,2 km/h (1 Bft) 97,83 %
21.10.2018 09:42 5,2 C 5,6 C 5,6 C 97 % 1027,7 hPa 0,0 l/m 0 min 0 min 36 W/m 9,7 km/h (2 Bft) 97,87 %
21.10.2018 09:44 5,3 C 6,1 C 5,6 C 97 % 1027,7 hPa 0,0 l/m 0 min 0 min 39 W/m 9,7 km/h (2 Bft) 95,74 %
21.10.2018 09:46 5,3 C 6,1 C 5,6 C 97 % 1027,7 hPa 0,0 l/m 0 min 0 min 39 W/m 12,9 km/h (3 Bft) 95,74 %
21.10.2018 09:48 5,4 C 6,1 C 5,6 C 97 % 1027,7 hPa 0,0 l/m 0 min 0 min 37 W/m 9,7 km/h (2 Bft) 95,74 %
21.10.2018 09:50 5,4 C 6,1 C 5,6 C 97 % 1027,7 hPa 0,0 l/m 0 min 0 min 37 W/m 9,7 km/h (2 Bft) 93,10 %
21.10.2018 09:52 5,5 C 6,1 C 6,1 C 97 % 1027,7 hPa 0,0 l/m 0 min 0 min 37 W/m 6,4 km/h (2 Bft) 97,14 %
21.10.2018 09:54 5,6 C 6,7 C 6,1 C 97 % 1027,8 hPa 0,0 l/m 0 min 0 min 37 W/m 6,4 km/h (2 Bft) 95,74 %
21.10.2018 09:56 5,6 C 6,7 C 6,1 C 97 % 1027,8 hPa 0,0 l/m 0 min 0 min 37 W/m 9,7 km/h (2 Bft) 95,74 %
21.10.2018 09:58 5,7 C 6,7 C 6,1 C 97 % 1027,7 hPa 0,0 l/m 0 min 0 min 39 W/m 16,1 km/h (3 Bft) 93,62 %
21.10.2018 10:00 5,8 C 6,7 C 6,1 C 97 % 1027,7 hPa 0,0 l/m 0 min 0 min 39 W/m 16,1 km/h (3 Bft) 93,62 %
21.10.2018 10:02 5,8 C 6,7 C 6,1 C 97 % 1027,7 hPa 0,0 l/m 0 min 0 min 39 W/m 12,9 km/h (3 Bft) 95,65 %
21.10.2018 10:04 5,9 C 6,7 C 6,1 C 97 % 1027,7 hPa 0,0 l/m 0 min 0 min 39 W/m 9,7 km/h (2 Bft) 95,83 %
21.10.2018 10:08 6,1 C 7,2 C 6,7 C 97 % 1027,7 hPa 0,0 l/m 0 min 0 min 41 W/m 12,9 km/h (3 Bft) 94,74 %
21.10.2018 10:10 6,1 C 7,2 C 6,7 C 97 % 1027,8 hPa 0,0 l/m 0 min 0 min 42 W/m 9,7 km/h (2 Bft) 95,74 %
21.10.2018 10:12 6,2 C 7,2 C 6,7 C 97 % 1027,8 hPa 0,0 l/m 0 min 0 min 41 W/m 9,7 km/h (2 Bft) 95,74 %
21.10.2018 10:14 6,3 C 7,2 C 6,7 C 97 % 1027,7 hPa 0,0 l/m 0 min 0 min 42 W/m 12,9 km/h (3 Bft) 95,65 %
21.10.2018 10:16 6,3 C 7,8 C 6,7 C 97 % 1027,7 hPa 0,0 l/m 0 min 0 min 42 W/m 9,7 km/h (2 Bft) 95,74 %
21.10.2018 10:18 6,4 C 7,8 C 6,7 C 97 % 1027,7 hPa 0,0 l/m 0 min 0 min 42 W/m 6,4 km/h (2 Bft) 97,87 %
21.10.2018 10:20 6,4 C 8,3 C 6,7 C 97 % 1027,7 hPa 0,0 l/m 0 min 0 min 43 W/m 6,4 km/h (2 Bft) 95,74 %
21.10.2018 10:22 6,5 C 9,4 C 6,7 C 97 % 1027,8 hPa 0,0 l/m 0 min 0 min 45 W/m 6,4 km/h (2 Bft) 95,24 %
21.10.2018 10:24 6,6 C 10,6 C 6,7 C 97 % 1027,8 hPa 0,0 l/m 0 min 0 min 48 W/m 6,4 km/h (2 Bft) 95,83 %
21.10.2018 10:26 6,7 C 11,7 C 6,7 C 97 % 1027,8 hPa 0,0 l/m 0 min 0 min 83 W/m 12,9 km/h (3 Bft) 95,74 %
21.10.2018 10:28 6,8 C 12,2 C 7,2 C 97 % 1027,8 hPa 0,0 l/m 0 min 0 min 106 W/m 9,7 km/h (2 Bft) 95,74 %
21.10.2018 10:30 6,9 C 12,8 C 7,2 C 97 % 1027,9 hPa 0,0 l/m 0 min 0 min 85 W/m 12,9 km/h (3 Bft) 95,74 %
21.10.2018 10:32 6,9 C 13,9 C 7,2 C 97 % 1027,9 hPa 0,0 l/m 0 min 0 min 70 W/m 9,7 km/h (2 Bft) 100,00 %
21.10.2018 10:34 7,1 C 13,9 C 7,2 C 97 % 1027,8 hPa 0,0 l/m 0 min 0 min 94 W/m 16,1 km/h (3 Bft) 97,87 %
21.10.2018 10:38 7,3 C 14,4 C 7,2 C 97 % 1027,9 hPa 0,0 l/m 0 min 0 min 78 W/m 12,9 km/h (3 Bft) 98,94 %
21.10.2018 10:40 7,4 C 15,0 C 7,2 C 98 % 1027,9 hPa 0,0 l/m 0 min 0 min 86 W/m 6,4 km/h (2 Bft) 100,00 %
21.10.2018 10:42 7,5 C 14,4 C 7,2 C 98 % 1027,9 hPa 0,0 l/m 0 min 0 min 82 W/m 9,7 km/h (2 Bft) 97,83 %
21.10.2018 10:44 7,6 C 15,6 C 7,2 C 98 % 1028,0 hPa 0,0 l/m 0 min 0 min 84 W/m 6,4 km/h (2 Bft) 97,87 %
21.10.2018 10:46 7,7 C 15,0 C 7,8 C 98 % 1028,0 hPa 0,0 l/m 0 min 0 min 132 W/m 16,1 km/h (3 Bft) 97,87 %
21.10.2018 10:48 7,8 C 14,4 C 7,8 C 98 % 1028,0 hPa 0,0 l/m 0 min 0 min 69 W/m 12,9 km/h (3 Bft) 97,87 %
21.10.2018 10:50 7,9 C 15,0 C 7,8 C 98 % 1027,9 hPa 0,0 l/m 0 min 0 min 64 W/m 16,1 km/h (3 Bft) 97,87 %
21.10.2018 10:52 8,1 C 15,0 C 7,8 C 98 % 1027,9 hPa 0,0 l/m 0 min 0 min 61 W/m 9,7 km/h (2 Bft) 95,74 %
21.10.2018 10:54 8,1 C 15,0 C 7,8 C 98 % 1027,9 hPa 0,0 l/m 0 min 0 min 76 W/m 6,4 km/h (2 Bft) 97,87 %
21.10.2018 10:56 8,2 C 16,1 C 7,8 C 98 % 1027,9 hPa 0,0 l/m 0 min 0 min 104 W/m 9,7 km/h (2 Bft) 97,83 %
21.10.2018 10:58 8,3 C 16,1 C 7,8 C 98 % 1027,8 hPa 0,0 l/m 0 min 0 min 145 W/m 9,7 km/h (2 Bft) 97,87 %
21.10.2018 11:00 8,4 C 16,1 C 7,8 C 98 % 1027,8 hPa 0,0 l/m 0 min 0 min 99 W/m 9,7 km/h (2 Bft) 97,87 %
21.10.2018 11:02 8,6 C 16,7 C 7,8 C 98 % 1027,8 hPa 0,0 l/m 0 min 0 min 69 W/m 6,4 km/h (2 Bft) 97,87 %
21.10.2018 11:04 8,7 C 16,7 C 7,8 C 98 % 1027,9 hPa 0,0 l/m 0 min 0 min 117 W/m 6,4 km/h (2 Bft) 97,87 %
21.10.2018 11:08 8,9 C 17,8 C 7,8 C 98 % 1027,8 hPa 0,0 l/m 0 min 0 min 57 W/m 9,7 km/h (2 Bft) 97,85 %
21.10.2018 11:10 9,0 C 17,8 C 7,8 C 98 % 1027,8 hPa 0,0 l/m 0 min 0 min 55 W/m 6,4 km/h (2 Bft) 97,87 %
21.10.2018 11:12 9,2 C 17,8 C 8,3 C 98 % 1027,8 hPa 0,0 l/m 0 min 0 min 56 W/m 6,4 km/h (2 Bft) 100,00 %
21.10.2018 11:14 9,2 C 18,3 C 8,3 C 98 % 1027,8 hPa 0,0 l/m 0 min 0 min 89 W/m 3,2 km/h (1 Bft) 100,00 %
21.10.2018 11:16 9,4 C 17,8 C 8,3 C 98 % 1027,8 hPa 0,0 l/m 0 min 0 min 133 W/m 12,9 km/h (3 Bft) 97,87 %
21.10.2018 11:18 9,4 C 18,3 C 8,3 C 98 % 1027,9 hPa 0,0 l/m 0 min 0 min 188 W/m 6,4 km/h (2 Bft) 97,87 %
21.10.2018 11:20 9,6 C 17,8 C 8,3 C 98 % 1027,8 hPa 0,0 l/m 0 min 0 min 163 W/m 9,7 km/h (2 Bft) 97,83 %
21.10.2018 11:22 9,7 C 18,3 C 8,3 C 97 % 1027,8 hPa 0,0 l/m 0 min 0 min 111 W/m 9,7 km/h (2 Bft) 100,00 %
21.10.2018 11:24 9,8 C 18,9 C 8,3 C 97 % 1027,9 hPa 0,0 l/m 0 min 0 min 60 W/m 9,7 km/h (2 Bft) 97,87 %
21.10.2018 11:26 9,9 C 18,9 C 8,3 C 97 % 1027,9 hPa 0,0 l/m 0 min 0 min 58 W/m 6,4 km/h (2 Bft) 100,00 %
21.10.2018 11:28 10,1 C 20,0 C 8,3 C 97 % 1027,9 hPa 0,0 l/m 0 min 0 min 54 W/m 6,4 km/h (2 Bft) 100,00 %
21.10.2018 11:30 10,2 C 19,4 C 8,3 C 97 % 1027,9 hPa 0,0 l/m 0 min 0 min 53 W/m 6,4 km/h (2 Bft) 100,00 %
21.10.2018 11:32 10,3 C 20,0 C 8,3 C 97 % 1027,9 hPa 0,0 l/m 0 min 0 min 57 W/m 9,7 km/h (2 Bft) 95,74 %
21.10.2018 11:34 10,4 C 19,4 C 8,9 C 96 % 1027,9 hPa 0,0 l/m 0 min 0 min 57 W/m 9,7 km/h (2 Bft) 100,00 %
21.10.2018 11:38 10,7 C 18,9 C 8,9 C 95 % 1027,9 hPa 0,0 l/m 0 min 0 min 90 W/m 9,7 km/h (2 Bft) 98,94 %
21.10.2018 11:40 10,9 C 18,9 C 8,9 C 94 % 1027,9 hPa 0,0 l/m 0 min 0 min 103 W/m 9,7 km/h (2 Bft) 100,00 %
21.10.2018 11:42 11,0 C 20,0 C 8,9 C 94 % 1027,8 hPa 0,0 l/m 0 min 0 min 87 W/m 9,7 km/h (2 Bft) 100,00 %
21.10.2018 11:44 11,2 C 21,1 C 8,9 C 93 % 1027,8 hPa 0,0 l/m 0 min 0 min 127 W/m 3,2 km/h (1 Bft) 100,00 %
21.10.2018 11:46 11,3 C 20,0 C 8,9 C 91 % 1027,8 hPa 0,0 l/m 0 min 0 min 152 W/m 6,4 km/h (2 Bft) 100,00 %
21.10.2018 11:48 11,4 C 20,6 C 8,9 C 90 % 1027,8 hPa 0,0 l/m 0 min 0 min 59 W/m 9,7 km/h (2 Bft) 97,87 %
21.10.2018 11:50 11,6 C 20,6 C 8,9 C 89 % 1027,8 hPa 0,0 l/m 0 min 0 min 56 W/m 9,7 km/h (2 Bft) 95,74 %
21.10.2018 11:52 11,7 C 20,6 C 9,4 C 88 % 1027,8 hPa 0,0 l/m 0 min 0 min 59 W/m 9,7 km/h (2 Bft) 97,87 %
21.10.2018 11:54 11,9 C 20,6 C 9,4 C 87 % 1027,8 hPa 0,0 l/m 0 min 0 min 70 W/m 9,7 km/h (2 Bft) 97,83 %
21.10.2018 11:56 12,0 C 20,6 C 9,4 C 86 % 1027,8 hPa 0,0 l/m 0 min 0 min 146 W/m 12,9 km/h (3 Bft) 97,87 %
21.10.2018 11:58 12,2 C 20,6 C 9,4 C 85 % 1027,8 hPa 0,0 l/m 0 min 0 min 210 W/m 6,4 km/h (2 Bft) 97,87 %
21.10.2018 12:00 12,3 C 20,0 C 9,4 C 84 % 1027,8 hPa 0,0 l/m 0 min 0 min 136 W/m 3,2 km/h (1 Bft) 97,87 %
21.10.2018 12:02 12,4 C 21,1 C 9,4 C 83 % 1027,8 hPa 0,0 l/m 0 min 0 min 56 W/m 6,4 km/h (2 Bft) 97,87 %
21.10.2018 12:04 12,6 C 21,1 C 9,4 C 82 % 1027,8 hPa 0,0 l/m 0 min 0 min 81 W/m 6,4 km/h (2 Bft) 97,83 %
21.10.2018 12:08 12,8 C 21,7 C 9,4 C 81 % 1027,7 hPa 0,0 l/m 0 min 0 min 65 W/m 9,7 km/h (2 Bft) 96,81 %
21.10.2018 12:10 12,9 C 21,7 C 9,4 C 80 % 1027,7 hPa 0,0 l/m 0 min 0 min 54 W/m 9,7 km/h (2 Bft) 97,87 %
21.10.2018 12:12 12,9 C 20,6 C 9,4 C 80 % 1027,6 hPa 0,0 l/m 0 min 0 min 57 W/m 6,4 km/h (2 Bft) 97,87 %
21.10.2018 12:14 13,1 C 18,9 C 9,4 C 79 % 1027,7 hPa 0,0 l/m 0 min 0 min 54 W/m 12,9 km/h (3 Bft) 97,87 %
21.10.2018 12:16 13,1 C 20,6 C 9,4 C 78 % 1027,6 hPa 0,0 l/m 0 min 0 min 54 W/m 9,7 km/h (2 Bft) 97,83 %
21.10.2018 12:18 13,2 C 20,6 C 9,4 C 78 % 1027,5 hPa 0,0 l/m 0 min 0 min 54 W/m 9,7 km/h (2 Bft) 97,87 %
21.10.2018 12:20 13,3 C 19,4 C 10,0 C 77 % 1027,5 hPa 0,0 l/m 0 min 0 min 54 W/m 12,9 km/h (3 Bft) 97,87 %
21.10.2018 12:22 13,4 C 20,0 C 10,0 C 76 % 1027,5 hPa 0,0 l/m 0 min 0 min 99 W/m 9,7 km/h (2 Bft) 100,00 %
21.10.2018 12:24 13,5 C 21,1 C 10,0 C 76 % 1027,5 hPa 0,0 l/m 0 min 0 min 67 W/m 6,4 km/h (2 Bft) 97,87 %
21.10.2018 12:26 13,6 C 20,0 C 10,0 C 75 % 1027,5 hPa 0,0 l/m 0 min 0 min 55 W/m 12,9 km/h (3 Bft) 100,00 %
21.10.2018 12:28 13,7 C 18,3 C 10,0 C 75 % 1027,5 hPa 0,0 l/m 0 min 0 min 56 W/m 6,4 km/h (2 Bft) 100,00 %
21.10.2018 12:30 13,8 C 16,7 C 10,0 C 74 % 1027,5 hPa 0,0 l/m 0 min 0 min 61 W/m 6,4 km/h (2 Bft) 100,00 %
21.10.2018 12:32 13,8 C 15,6 C 10,0 C 74 % 1027,5 hPa 0,0 l/m 0 min 0 min 82 W/m 16,1 km/h (3 Bft) 97,87 %
21.10.2018 12:34 13,8 C 14,4 C 10,0 C 73 % 1027,5 hPa 0,0 l/m 0 min 0 min 56 W/m 6,4 km/h (2 Bft) 93,62 %
21.10.2018 12:38 13,9 C 13,9 C 10,6 C 73 % 1027,3 hPa 0,0 l/m 0 min 0 min 68 W/m 12,9 km/h (3 Bft) 95,74 %
21.10.2018 12:40 13,9 C 13,9 C 10,6 C 73 % 1027,4 hPa 0,0 l/m 0 min 0 min 127 W/m 12,9 km/h (3 Bft) 97,83 %
21.10.2018 12:42 13,9 C 13,9 C 10,6 C 72 % 1027,4 hPa 0,0 l/m 0 min 0 min 228 W/m 12,9 km/h (3 Bft) 97,87 %
21.10.2018 12:44 13,9 C 13,9 C 10,6 C 73 % 1027,3 hPa 0,0 l/m 2 min 0 min 360 W/m 12,9 km/h (3 Bft) 95,74 %
21.10.2018 12:46 13,9 C 13,9 C 10,6 C 73 % 1027,3 hPa 0,0 l/m 2 min 0 min 394 W/m 12,9 km/h (3 Bft) 97,96 %
21.10.2018 12:48 13,9 C 13,9 C 10,6 C 72 % 1027,3 hPa 0,0 l/m 2 min 0 min 394 W/m 9,7 km/h (2 Bft) 97,87 %
21.10.2018 12:50 13,9 C 13,9 C 10,6 C 72 % 1027,3 hPa 0,0 l/m 2 min 0 min 396 W/m 12,9 km/h (3 Bft) 97,87 %
21.10.2018 12:52 13,8 C 14,4 C 10,6 C 72 % 1027,3 hPa 0,0 l/m 2 min 0 min 397 W/m 9,7 km/h (2 Bft) 95,74 %
21.10.2018 12:54 13,8 C 15,0 C 10,6 C 72 % 1027,3 hPa 0,0 l/m 2 min 0 min 399 W/m 9,7 km/h (2 Bft) 97,87 %
21.10.2018 12:56 13,8 C 14,4 C 10,6 C 73 % 1027,2 hPa 0,0 l/m 2 min 0 min 401 W/m 9,7 km/h (2 Bft) 97,87 %
21.10.2018 12:58 13,8 C 14,4 C 10,6 C 73 % 1027,2 hPa 0,0 l/m 2 min 0 min 400 W/m 9,7 km/h (2 Bft) 97,83 %
21.10.2018 13:00 13,8 C 13,9 C 10,6 C 73 % 1027,1 hPa 0,0 l/m 2 min 0 min 407 W/m 9,7 km/h (2 Bft) 97,87 %
21.10.2018 13:02 13,8 C 13,9 C 10,6 C 72 % 1027,1 hPa 0,0 l/m 2 min 0 min 410 W/m 6,4 km/h (2 Bft) 97,87 %
21.10.2018 13:04 13,8 C 13,9 C 10,6 C 72 % 1027,1 hPa 0,0 l/m 2 min 0 min 410 W/m 9,7 km/h (2 Bft) 97,87 %
21.10.2018 13:08 13,8 C 13,9 C 10,6 C 72 % 1027,1 hPa 0,0 l/m 4 min 0 min 411 W/m 9,7 km/h (2 Bft) 97,87 %
21.10.2018 13:10 13,8 C 14,4 C 11,1 C 73 % 1027,0 hPa 0,0 l/m 2 min 0 min 414 W/m 6,4 km/h (2 Bft) 95,74 %
21.10.2018 13:12 13,8 C 14,4 C 11,1 C 72 % 1027,0 hPa 0,0 l/m 2 min 0 min 416 W/m 9,7 km/h (2 Bft) 97,87 %
21.10.2018 13:14 13,9 C 14,4 C 11,1 C 73 % 1027,0 hPa 0,0 l/m 2 min 0 min 416 W/m 6,4 km/h (2 Bft) 97,83 %
21.10.2018 13:16 13,9 C 14,4 C 11,1 C 73 % 1026,9 hPa 0,0 l/m 2 min 0 min 419 W/m 6,4 km/h (2 Bft) 97,87 %
21.10.2018 13:18 13,9 C 14,4 C 11,1 C 73 % 1026,9 hPa 0,0 l/m 2 min 0 min 418 W/m 9,7 km/h (2 Bft) 95,45 %
21.10.2018 13:20 13,9 C 14,4 C 11,7 C 72 % 1026,8 hPa 0,0 l/m 2 min 0 min 419 W/m 6,4 km/h (2 Bft) 98,00 %
21.10.2018 13:22 14,0 C 14,4 C 11,7 C 72 % 1026,8 hPa 0,0 l/m 2 min 0 min 419 W/m 12,9 km/h (3 Bft) 100,00 %
21.10.2018 13:24 14,1 C 14,4 C 11,7 C 72 % 1026,8 hPa 0,0 l/m 2 min 0 min 420 W/m 9,7 km/h (2 Bft) 97,87 %
21.10.2018 13:26 14,2 C 14,4 C 11,7 C 71 % 1026,8 hPa 0,0 l/m 2 min 0 min 419 W/m 19,3 km/h (3 Bft) 100,00 %
21.10.2018 13:28 14,2 C 14,4 C 11,7 C 71 % 1026,7 hPa 0,0 l/m 2 min 0 min 417 W/m 6,4 km/h (2 Bft) 97,87 %
21.10.2018 13:30 14,2 C 14,4 C 11,7 C 71 % 1026,7 hPa 0,0 l/m 2 min 0 min 419 W/m 9,7 km/h (2 Bft) 100,00 %
21.10.2018 13:32 14,2 C 14,4 C 11,7 C 71 % 1026,7 hPa 0,0 l/m 2 min 0 min 421 W/m 9,7 km/h (2 Bft) 97,92 %
21.10.2018 13:34 14,2 C 14,4 C 11,7 C 71 % 1026,7 hPa 0,0 l/m 2 min 0 min 424 W/m 12,9 km/h (3 Bft) 100,00 %
21.10.2018 13:38 14,3 C 14,4 C 11,7 C 70 % 1026,6 hPa 0,0 l/m 4 min 0 min 422 W/m 9,7 km/h (2 Bft) 100,00 %
21.10.2018 13:40 14,4 C 15,0 C 11,7 C 70 % 1026,6 hPa 0,0 l/m 2 min 0 min 422 W/m 16,1 km/h (3 Bft) 97,87 %
21.10.2018 13:42 14,4 C 15,0 C 12,2 C 70 % 1026,5 hPa 0,0 l/m 2 min 0 min 424 W/m 12,9 km/h (3 Bft) 97,87 %
21.10.2018 13:44 14,5 C 15,0 C 12,2 C 69 % 1026,5 hPa 0,0 l/m 2 min 0 min 424 W/m 9,7 km/h (2 Bft) 100,00 %
21.10.2018 13:46 14,5 C 15,0 C 12,2 C 70 % 1026,5 hPa 0,0 l/m 2 min 0 min 426 W/m 6,4 km/h (2 Bft) 100,00 %
21.10.2018 13:48 14,6 C 15,0 C 12,2 C 69 % 1026,5 hPa 0,0 l/m 2 min 0 min 426 W/m 9,7 km/h (2 Bft) 100,00 %
21.10.2018 13:50 14,6 C 15,0 C 11,7 C 69 % 1026,4 hPa 0,0 l/m 2 min 0 min 422 W/m 16,1 km/h (3 Bft) 100,00 %
21.10.2018 13:52 14,7 C 15,0 C 12,2 C 69 % 1026,5 hPa 0,0 l/m 2 min 0 min 419 W/m 12,9 km/h (3 Bft) 100,00 %
21.10.2018 13:54 14,7 C 15,0 C 12,2 C 69 % 1026,4 hPa 0,0 l/m 2 min 0 min 416 W/m 9,7 km/h (2 Bft) 100,00 %
21.10.2018 13:56 14,7 C 15,0 C 12,2 C 69 % 1026,4 hPa 0,0 l/m 2 min 0 min 417 W/m 12,9 km/h (3 Bft) 100,00 %
21.10.2018 13:58 14,8 C 15,0 C 12,2 C 68 % 1026,4 hPa 0,0 l/m 2 min 0 min 420 W/m 6,4 km/h (2 Bft) 100,00 %
21.10.2018 14:00 14,8 C 15,0 C 12,2 C 68 % 1026,4 hPa 0,0 l/m 2 min 0 min 423 W/m 9,7 km/h (2 Bft) 100,00 %
21.10.2018 14:02 14,8 C 15,0 C 12,2 C 69 % 1026,4 hPa 0,0 l/m 2 min 0 min 422 W/m 9,7 km/h (2 Bft) 100,00 %
21.10.2018 14:04 14,9 C 15,6 C 12,2 C 68 % 1026,3 hPa 0,0 l/m 2 min 0 min 425 W/m 9,7 km/h (2 Bft) 100,00 %
21.10.2018 14:08 14,9 C 15,6 C 12,2 C 66 % 1026,3 hPa 0,0 l/m 4 min 0 min 419 W/m 12,9 km/h (3 Bft) 95,74 %
21.10.2018 14:10 14,9 C 15,0 C 12,2 C 66 % 1026,2 hPa 0,0 l/m 2 min 0 min 375 W/m 12,9 km/h (3 Bft) 100,00 %
21.10.2018 14:12 14,9 C 15,0 C 12,2 C 67 % 1026,2 hPa 0,0 l/m 2 min 0 min 322 W/m 16,1 km/h (3 Bft) 97,87 %
21.10.2018 14:14 14,9 C 15,0 C 12,2 C 66 % 1026,2 hPa 0,0 l/m 2 min 0 min 382 W/m 12,9 km/h (3 Bft) 97,87 %
21.10.2018 14:16 15,0 C 15,6 C 12,2 C 66 % 1026,1 hPa 0,0 l/m 2 min 0 min 320 W/m 12,9 km/h (3 Bft) 95,74 %
21.10.2018 14:18 15,0 C 15,6 C 12,2 C 65 % 1026,2 hPa 0,0 l/m 2 min 0 min 228 W/m 12,9 km/h (3 Bft) 97,87 %
21.10.2018 14:20 15,1 C 15,6 C 12,2 C 65 % 1026,2 hPa 0,0 l/m 0 min 0 min 65 W/m 16,1 km/h (3 Bft) 98,28 %
21.10.2018 14:22 15,1 C 15,6 C 12,2 C 65 % 1026,1 hPa 0,0 l/m 0 min 0 min 57 W/m 12,9 km/h (3 Bft) 100,00 %
21.10.2018 14:24 15,1 C 15,6 C 12,2 C 65 % 1026,1 hPa 0,0 l/m 0 min 0 min 56 W/m 16,1 km/h (3 Bft) 97,87 %
21.10.2018 14:26 15,1 C 15,6 C 12,2 C 64 % 1026,0 hPa 0,0 l/m 0 min 0 min 54 W/m 16,1 km/h (3 Bft) 95,74 %
21.10.2018 14:28 15,1 C 15,6 C 12,2 C 63 % 1026,1 hPa 0,0 l/m 0 min 0 min 54 W/m 16,1 km/h (3 Bft) 97,87 %
21.10.2018 14:30 15,2 C 15,6 C 12,8 C 63 % 1026,0 hPa 0,0 l/m 0 min 0 min 54 W/m 12,9 km/h (3 Bft) 97,87 %
21.10.2018 14:32 15,2 C 15,6 C 12,8 C 64 % 1026,0 hPa 0,0 l/m 0 min 0 min 56 W/m 9,7 km/h (2 Bft) 93,62 %
21.10.2018 14:34 15,2 C 15,6 C 12,8 C 64 % 1026,0 hPa 0,0 l/m 0 min 0 min 56 W/m 16,1 km/h (3 Bft) 93,48 %
21.10.2018 14:38 15,3 C 15,6 C 12,8 C 63 % 1025,9 hPa 0,0 l/m 0 min 0 min 57 W/m 16,1 km/h (3 Bft) 97,87 %
21.10.2018 14:40 15,3 C 15,6 C 12,8 C 64 % 1025,9 hPa 0,0 l/m 0 min 0 min 57 W/m 19,3 km/h (3 Bft) 97,87 %
21.10.2018 14:42 15,4 C 15,6 C 12,8 C 64 % 1025,8 hPa 0,0 l/m 0 min 0 min 74 W/m 12,9 km/h (3 Bft) 97,87 %
21.10.2018 14:44 15,4 C 15,6 C 12,8 C 64 % 1025,8 hPa 0,0 l/m 0 min 0 min 79 W/m 9,7 km/h (2 Bft) 95,65 %
21.10.2018 14:46 15,4 C 15,6 C 12,8 C 64 % 1025,8 hPa 0,0 l/m 0 min 0 min 86 W/m 9,7 km/h (2 Bft) 95,74 %
21.10.2018 14:48 15,5 C 15,6 C 12,8 C 64 % 1025,8 hPa 0,0 l/m 0 min 0 min 68 W/m 16,1 km/h (3 Bft) 95,74 %
21.10.2018 14:50 15,5 C 15,6 C 12,8 C 64 % 1025,8 hPa 0,0 l/m 0 min 0 min 155 W/m 16,1 km/h (3 Bft) 94,92 %
21.10.2018 14:52 15,5 C 15,6 C 12,8 C 63 % 1025,8 hPa 0,0 l/m 0 min 0 min 145 W/m 12,9 km/h (3 Bft) 97,22 %
21.10.2018 14:54 15,6 C 15,6 C 12,8 C 64 % 1025,7 hPa 0,0 l/m 2 min 0 min 246 W/m 9,7 km/h (2 Bft) 97,87 %
21.10.2018 14:56 15,6 C 15,6 C 12,8 C 64 % 1025,7 hPa 0,0 l/m 2 min 0 min 365 W/m 12,9 km/h (3 Bft) 95,65 %
21.10.2018 14:58 15,6 C 15,6 C 12,8 C 63 % 1025,7 hPa 0,0 l/m 2 min 0 min 396 W/m 12,9 km/h (3 Bft) 97,87 %
21.10.2018 15:00 15,6 C 15,6 C 12,8 C 63 % 1025,6 hPa 0,0 l/m 2 min 0 min 392 W/m 9,7 km/h (2 Bft) 95,74 %
21.10.2018 15:02 15,7 C 16,1 C 12,8 C 63 % 1025,5 hPa 0,0 l/m 2 min 0 min 384 W/m 6,4 km/h (2 Bft) 97,87 %
21.10.2018 15:04 15,7 C 16,1 C 12,8 C 62 % 1025,6 hPa 0,0 l/m 2 min 0 min 367 W/m 9,7 km/h (2 Bft) 97,87 %
21.10.2018 15:08 15,7 C 15,6 C 12,8 C 62 % 1025,6 hPa 0,0 l/m 4 min 0 min 382 W/m 16,1 km/h (3 Bft) 97,87 %
21.10.2018 15:10 15,8 C 16,1 C 12,8 C 62 % 1025,6 hPa 0,0 l/m 2 min 0 min 382 W/m 9,7 km/h (2 Bft) 95,74 %
21.10.2018 15:12 15,8 C 15,6 C 12,8 C 62 % 1025,5 hPa 0,0 l/m 2 min 0 min 380 W/m 16,1 km/h (3 Bft) 97,87 %
21.10.2018 15:14 15,8 C 16,1 C 12,8 C 62 % 1025,5 hPa 0,0 l/m 2 min 0 min 379 W/m 6,4 km/h (2 Bft) 97,87 %
21.10.2018 15:16 15,8 C 16,1 C 12,8 C 62 % 1025,5 hPa 0,0 l/m 2 min 0 min 377 W/m 16,1 km/h (3 Bft) 97,87 %
21.10.2018 15:18 15,8 C 16,1 C 12,8 C 62 % 1025,5 hPa 0,0 l/m 2 min 0 min 374 W/m 6,4 km/h (2 Bft) 95,74 %
21.10.2018 15:20 15,9 C 16,1 C 12,8 C 62 % 1025,5 hPa 0,0 l/m 2 min 0 min 370 W/m 12,9 km/h (3 Bft) 97,83 %
21.10.2018 15:22 15,9 C 16,1 C 12,8 C 61 % 1025,5 hPa 0,0 l/m 2 min 0 min 367 W/m 16,1 km/h (3 Bft) 97,92 %
21.10.2018 15:24 15,9 C 16,1 C 12,8 C 61 % 1025,5 hPa 0,0 l/m 2 min 0 min 367 W/m 9,7 km/h (2 Bft) 97,87 %
21.10.2018 15:26 15,9 C 16,1 C 13,3 C 61 % 1025,5 hPa 0,0 l/m 2 min 0 min 366 W/m 12,9 km/h (3 Bft) 95,74 %
21.10.2018 15:28 15,9 C 16,1 C 13,3 C 61 % 1025,5 hPa 0,0 l/m 2 min 0 min 362 W/m 6,4 km/h (2 Bft) 97,87 %
21.10.2018 15:30 16,0 C 16,1 C 12,8 C 61 % 1025,5 hPa 0,0 l/m 2 min 0 min 359 W/m 3,2 km/h (1 Bft) 97,83 %
21.10.2018 15:32 16,0 C 16,1 C 12,8 C 61 % 1025,6 hPa 0,0 l/m 2 min 0 min 358 W/m 6,4 km/h (2 Bft) 95,74 %
21.10.2018 15:34 16,0 C 16,1 C 12,8 C 61 % 1025,5 hPa 0,0 l/m 2 min 0 min 353 W/m 12,9 km/h (3 Bft) 95,74 %
21.10.2018 15:38 16,1 C 16,1 C 12,8 C 60 % 1025,5 hPa 0,0 l/m 4 min 0 min 350 W/m 12,9 km/h (3 Bft) 95,74 %
21.10.2018 15:40 16,1 C 16,1 C 12,8 C 61 % 1025,4 hPa 0,0 l/m 2 min 0 min 339 W/m 12,9 km/h (3 Bft) 95,74 %
21.10.2018 15:42 16,1 C 16,1 C 12,8 C 60 % 1025,4 hPa 0,0 l/m 2 min 0 min 326 W/m 9,7 km/h (2 Bft) 97,83 %
21.10.2018 15:44 16,1 C 15,6 C 12,8 C 60 % 1025,4 hPa 0,0 l/m 2 min 0 min 341 W/m 9,7 km/h (2 Bft) 95,74 %
21.10.2018 15:46 16,1 C 15,6 C 12,8 C 60 % 1025,3 hPa 0,0 l/m 2 min 0 min 338 W/m 12,9 km/h (3 Bft) 95,74 %
21.10.2018 15:48 16,1 C 15,6 C 12,8 C 60 % 1025,3 hPa 0,0 l/m 2 min 0 min 336 W/m 9,7 km/h (2 Bft) 95,74 %
21.10.2018 15:50 16,1 C 15,6 C 12,8 C 60 % 1025,3 hPa 0,0 l/m 2 min 0 min 330 W/m 12,9 km/h (3 Bft) 97,87 %
21.10.2018 15:52 16,1 C 15,6 C 12,8 C 60 % 1025,4 hPa 0,0 l/m 2 min 0 min 304 W/m 12,9 km/h (3 Bft) 97,87 %
21.10.2018 15:54 16,1 C 15,6 C 12,8 C 60 % 1025,3 hPa 0,0 l/m 2 min 0 min 312 W/m 9,7 km/h (2 Bft) 97,83 %
21.10.2018 15:56 16,1 C 15,6 C 12,8 C 60 % 1025,3 hPa 0,0 l/m 2 min 0 min 326 W/m 9,7 km/h (2 Bft) 97,87 %
21.10.2018 15:58 16,1 C 16,1 C 12,8 C 60 % 1025,2 hPa 0,0 l/m 2 min 0 min 315 W/m 6,4 km/h (2 Bft) 95,74 %
21.10.2018 16:00 16,1 C 15,6 C 12,8 C 60 % 1025,2 hPa 0,0 l/m 2 min 0 min 282 W/m 6,4 km/h (2 Bft) 97,87 %
21.10.2018 16:02 16,1 C 16,1 C 12,8 C 61 % 1025,3 hPa 0,0 l/m 2 min 0 min 290 W/m 9,7 km/h (2 Bft) 93,62 %
21.10.2018 16:04 16,1 C 15,6 C 12,8 C 60 % 1025,2 hPa 0,0 l/m 2 min 0 min 296 W/m 12,9 km/h (3 Bft) 95,74 %
21.10.2018 16:08 16,1 C 15,6 C 12,8 C 60 % 1025,1 hPa 0,0 l/m 4 min 0 min 307 W/m 12,9 km/h (3 Bft) 97,89 %
21.10.2018 16:10 16,1 C 15,6 C 12,8 C 59 % 1025,1 hPa 0,0 l/m 2 min 0 min 303 W/m 9,7 km/h (2 Bft) 97,87 %
21.10.2018 16:12 16,1 C 15,6 C 12,2 C 60 % 1025,1 hPa 0,0 l/m 2 min 0 min 301 W/m 9,7 km/h (2 Bft) 97,87 %
21.10.2018 16:14 16,1 C 16,1 C 12,8 C 59 % 1025,1 hPa 0,0 l/m 2 min 0 min 299 W/m 12,9 km/h (3 Bft) 95,74 %
21.10.2018 16:16 16,1 C 16,1 C 12,8 C 59 % 1025,1 hPa 0,0 l/m 2 min 0 min 297 W/m 16,1 km/h (3 Bft) 95,74 %
21.10.2018 16:18 16,1 C 16,1 C 12,8 C 60 % 1025,1 hPa 0,0 l/m 2 min 0 min 291 W/m 9,7 km/h (2 Bft) 100,00 %
21.10.2018 16:20 16,1 C 16,1 C 12,8 C 60 % 1025,0 hPa 0,0 l/m 2 min 0 min 287 W/m 9,7 km/h (2 Bft) 100,00 %
21.10.2018 16:22 16,1 C 16,1 C 12,8 C 60 % 1025,0 hPa 0,0 l/m 2 min 0 min 284 W/m 6,4 km/h (2 Bft) 95,74 %
21.10.2018 16:24 16,1 C 16,7 C 12,2 C 59 % 1025,0 hPa 0,0 l/m 2 min 0 min 280 W/m 9,7 km/h (2 Bft) 97,87 %
21.10.2018 16:26 16,1 C 17,2 C 12,2 C 59 % 1025,0 hPa 0,0 l/m 2 min 0 min 273 W/m 9,7 km/h (2 Bft) 95,74 %
21.10.2018 16:28 16,1 C 17,2 C 12,2 C 59 % 1025,0 hPa 0,0 l/m 2 min 0 min 261 W/m 9,7 km/h (2 Bft) 97,83 %
21.10.2018 16:30 16,1 C 17,2 C 12,8 C 59 % 1025,0 hPa 0,0 l/m 2 min 0 min 248 W/m 12,9 km/h (3 Bft) 95,74 %
21.10.2018 16:32 16,1 C 17,2 C 12,8 C 60 % 1024,9 hPa 0,0 l/m 2 min 0 min 242 W/m 9,7 km/h (2 Bft) 97,87 %
21.10.2018 16:34 16,1 C 17,2 C 12,8 C 60 % 1024,9 hPa 0,0 l/m 2 min 0 min 262 W/m 12,9 km/h (3 Bft) 97,87 %
21.10.2018 16:38 16,2 C 16,7 C 12,2 C 60 % 1024,8 hPa 0,0 l/m 4 min 0 min 224 W/m 9,7 km/h (2 Bft) 96,81 %
21.10.2018 16:40 16,2 C 16,1 C 12,2 C 60 % 1024,8 hPa 0,0 l/m 2 min 0 min 198 W/m 6,4 km/h (2 Bft) 97,83 %
21.10.2018 16:42 16,1 C 16,1 C 12,8 C 60 % 1024,7 hPa 0,0 l/m 2 min 0 min 191 W/m 9,7 km/h (2 Bft) 97,87 %
21.10.2018 16:44 16,2 C 15,6 C 12,2 C 60 % 1024,7 hPa 0,0 l/m 2 min 0 min 201 W/m 9,7 km/h (2 Bft) 97,87 %
21.10.2018 16:46 16,1 C 15,6 C 12,2 C 60 % 1024,7 hPa 0,0 l/m 2 min 0 min 191 W/m 6,4 km/h (2 Bft) 97,87 %
21.10.2018 16:48 16,1 C 15,6 C 12,2 C 60 % 1024,6 hPa 0,0 l/m 0 min 0 min 112 W/m 9,7 km/h (2 Bft) 95,74 %
21.10.2018 16:50 16,1 C 15,6 C 12,2 C 60 % 1024,6 hPa 0,0 l/m 0 min 0 min 64 W/m 9,7 km/h (2 Bft) 97,87 %
21.10.2018 16:52 16,1 C 15,6 C 12,2 C 59 % 1024,6 hPa 0,0 l/m 0 min 0 min 60 W/m 9,7 km/h (2 Bft) 97,92 %
21.10.2018 16:54 16,1 C 15,6 C 12,2 C 59 % 1024,6 hPa 0,0 l/m 0 min 0 min 58 W/m 6,4 km/h (2 Bft) 97,83 %
21.10.2018 16:56 16,1 C 15,6 C 12,2 C 59 % 1024,6 hPa 0,0 l/m 0 min 0 min 56 W/m 12,9 km/h (3 Bft) 95,74 %
21.10.2018 16:58 16,0 C 15,6 C 12,2 C 59 % 1024,7 hPa 0,0 l/m 0 min 0 min 56 W/m 16,1 km/h (3 Bft) 97,87 %
21.10.2018 17:00 16,0 C 15,0 C 12,2 C 59 % 1024,6 hPa 0,0 l/m 0 min 0 min 57 W/m 16,1 km/h (3 Bft) 97,87 %
21.10.2018 17:02 15,9 C 15,0 C 12,2 C 60 % 1024,6 hPa 0,0 l/m 0 min 0 min 56 W/m 9,7 km/h (2 Bft) 95,74 %
21.10.2018 17:04 15,9 C 15,0 C 12,2 C 60 % 1024,6 hPa 0,0 l/m 0 min 0 min 56 W/m 12,9 km/h (3 Bft) 97,83 %
21.10.2018 17:08 15,9 C 15,0 C 12,2 C 60 % 1024,5 hPa 0,0 l/m 0 min 0 min 54 W/m 9,7 km/h (2 Bft) 97,87 %
21.10.2018 17:10 15,8 C 15,0 C 12,2 C 60 % 1024,5 hPa 0,0 l/m 0 min 0 min 53 W/m 9,7 km/h (2 Bft) 100,00 %
21.10.2018 17:12 15,8 C 15,0 C 12,2 C 60 % 1024,5 hPa 0,0 l/m 0 min 0 min 53 W/m 9,7 km/h (2 Bft) 97,87 %
21.10.2018 17:14 15,8 C 15,0 C 12,2 C 60 % 1024,5 hPa 0,0 l/m 0 min 0 min 51 W/m 9,7 km/h (2 Bft) 97,87 %
21.10.2018 17:16 15,8 C 15,0 C 12,2 C 60 % 1024,6 hPa 0,0 l/m 0 min 0 min 48 W/m 3,2 km/h (1 Bft) 100,00 %
21.10.2018 17:18 15,8 C 15,0 C 12,2 C 61 % 1024,5 hPa 0,0 l/m 0 min 0 min 47 W/m 6,4 km/h (2 Bft) 97,87 %
21.10.2018 17:20 15,7 C 14,4 C 12,2 C 61 % 1024,5 hPa 0,0 l/m 0 min 0 min 45 W/m 6,4 km/h (2 Bft) 100,00 %
21.10.2018 17:22 15,7 C 14,4 C 12,2 C 61 % 1024,5 hPa 0,0 l/m 0 min 0 min 44 W/m 6,4 km/h (2 Bft) 100,00 %
21.10.2018 17:24 15,7 C 14,4 C 12,2 C 61 % 1024,4 hPa 0,0 l/m 0 min 0 min 42 W/m 6,4 km/h (2 Bft) 97,87 %
21.10.2018 17:26 15,6 C 14,4 C 12,2 C 61 % 1024,4 hPa 0,0 l/m 0 min 0 min 41 W/m 3,2 km/h (1 Bft) 100,00 %
21.10.2018 17:28 15,6 C 14,4 C 12,2 C 61 % 1024,4 hPa 0,0 l/m 0 min 0 min 40 W/m 3,2 km/h (1 Bft) 100,00 %
21.10.2018 17:30 15,6 C 14,4 C 12,2 C 61 % 1024,4 hPa 0,0 l/m 0 min 0 min 40 W/m 6,4 km/h (2 Bft) 100,00 %
21.10.2018 17:32 15,5 C 14,4 C 12,2 C 61 % 1024,4 hPa 0,0 l/m 0 min 0 min 40 W/m 3,2 km/h (1 Bft) 100,00 %
21.10.2018 17:34 15,5 C 14,4 C 12,2 C 61 % 1024,4 hPa 0,0 l/m 0 min 0 min 40 W/m 3,2 km/h (1 Bft) 100,00 %
21.10.2018 17:38 15,4 C 14,4 C 11,7 C 62 % 1024,4 hPa 0,0 l/m 0 min 0 min 39 W/m 6,4 km/h (2 Bft) 100,00 %
21.10.2018 17:40 15,4 C 14,4 C 11,7 C 62 % 1024,4 hPa 0,0 l/m 0 min 0 min 37 W/m 3,2 km/h (1 Bft) 100,00 %
21.10.2018 17:42 15,4 C 13,9 C 11,7 C 63 % 1024,3 hPa 0,0 l/m 0 min 0 min 36 W/m 3,2 km/h (1 Bft) 95,74 %
21.10.2018 17:44 15,3 C 13,9 C 11,7 C 63 % 1024,4 hPa 0,0 l/m 0 min 0 min 33 W/m 3,2 km/h (1 Bft) 97,87 %
21.10.2018 17:46 15,3 C 14,4 C 11,7 C 62 % 1024,3 hPa 0,0 l/m 0 min 0 min 33 W/m 6,4 km/h (2 Bft) 95,74 %
21.10.2018 17:48 15,3 C 13,9 C 11,7 C 63 % 1024,3 hPa 0,0 l/m 0 min 0 min 33 W/m 3,2 km/h (1 Bft) 97,87 %
21.10.2018 17:50 15,2 C 14,4 C 11,7 C 62 % 1024,4 hPa 0,0 l/m 0 min 0 min 32 W/m 3,2 km/h (1 Bft) 97,83 %
21.10.2018 17:52 15,2 C 13,9 C 11,7 C 63 % 1024,3 hPa 0,0 l/m 0 min 0 min 32 W/m 0,0 km/h (0 Bft) 95,83 %
21.10.2018 17:54 15,2 C 13,9 C 11,7 C 62 % 1024,3 hPa 0,0 l/m 0 min 0 min 31 W/m 6,4 km/h (2 Bft) 97,87 %
21.10.2018 17:56 15,1 C 13,9 C 11,7 C 63 % 1024,3 hPa 0,0 l/m 0 min 0 min 27 W/m 6,4 km/h (2 Bft) 95,74 %
21.10.2018 17:58 15,1 C 13,9 C 11,7 C 63 % 1024,4 hPa 0,0 l/m 0 min 0 min 26 W/m 6,4 km/h (2 Bft) 95,74 %
21.10.2018 18:00 15,1 C 13,9 C 11,7 C 63 % 1024,3 hPa 0,0 l/m 0 min 0 min 25 W/m 3,2 km/h (1 Bft) 95,74 %
21.10.2018 18:02 15,0 C 13,9 C 11,1 C 63 % 1024,3 hPa 0,0 l/m 0 min 0 min 23 W/m 3,2 km/h (1 Bft) 95,65 %
21.10.2018 18:04 15,0 C 13,9 C 11,1 C 63 % 1024,4 hPa 0,0 l/m 0 min 0 min 23 W/m 0,0 km/h (0 Bft) 93,62 %
21.10.2018 18:08 14,9 C 13,3 C 11,1 C 64 % 1024,2 hPa 0,0 l/m 4 min 0 min 21 W/m 3,2 km/h (1 Bft) 94,68 %
21.10.2018 18:10 14,9 C 13,3 C 11,1 C 64 % 1024,3 hPa 0,0 l/m 2 min 0 min 21 W/m 3,2 km/h (1 Bft) 95,74 %
21.10.2018 18:12 14,9 C 13,3 C 11,1 C 64 % 1024,2 hPa 0,0 l/m 0 min 0 min 19 W/m 0,0 km/h (0 Bft) 95,74 %
21.10.2018 18:14 14,8 C 13,3 C 11,1 C 64 % 1024,3 hPa 0,0 l/m 0 min 0 min 18 W/m 3,2 km/h (1 Bft) 95,65 %
21.10.2018 18:16 14,8 C 12,8 C 11,1 C 64 % 1024,3 hPa 0,0 l/m 0 min 0 min 16 W/m 3,2 km/h (1 Bft) 95,74 %
21.10.2018 18:18 14,7 C 12,8 C 10,6 C 65 % 1024,3 hPa 0,0 l/m 0 min 0 min 14 W/m 0,0 km/h (0 Bft) 95,74 %
21.10.2018 18:20 14,7 C 12,8 C 10,6 C 65 % 1024,3 hPa 0,0 l/m 0 min 0 min 13 W/m 0,0 km/h (0 Bft) 93,62 %
21.10.2018 18:22 14,6 C 12,2 C 10,6 C 66 % 1024,3 hPa 0,0 l/m 0 min 0 min 12 W/m 0,0 km/h (0 Bft) 91,49 %
21.10.2018 18:24 14,5 C 12,2 C 10,6 C 66 % 1024,3 hPa 0,0 l/m 0 min 0 min 10 W/m 0,0 km/h (0 Bft) 93,62 %
21.10.2018 18:26 14,4 C 12,2 C 10,6 C 66 % 1024,3 hPa 0,0 l/m 0 min 0 min 9 W/m 0,0 km/h (0 Bft) 95,65 %
21.10.2018 18:28 14,3 C 11,7 C 10,6 C 66 % 1024,2 hPa 0,0 l/m 0 min 0 min 7 W/m 0,0 km/h (0 Bft) 95,74 %
21.10.2018 18:30 14,2 C 11,7 C 10,6 C 67 % 1024,2 hPa 0,0 l/m 0 min 0 min 7 W/m 0,0 km/h (0 Bft) 95,74 %
21.10.2018 18:32 14,2 C 11,7 C 10,0 C 67 % 1024,2 hPa 0,0 l/m 0 min 0 min 7 W/m 0,0 km/h (0 Bft) 95,74 %
21.10.2018 18:34 14,2 C 11,7 C 10,0 C 67 % 1024,2 hPa 0,0 l/m 0 min 0 min 7 W/m 0,0 km/h (0 Bft) 93,62 %
21.10.2018 18:38 13,9 C 11,1 C 10,0 C 68 % 1024,2 hPa 0,0 l/m 0 min 0 min 6 W/m 0,0 km/h (0 Bft) 92,47 %
21.10.2018 18:40 13,8 C 11,1 C 10,0 C 69 % 1024,1 hPa 0,0 l/m 0 min 0 min 5 W/m 0,0 km/h (0 Bft) 93,62 %
21.10.2018 18:42 13,7 C 11,1 C 10,0 C 69 % 1024,2 hPa 0,0 l/m 0 min 0 min 5 W/m 0,0 km/h (0 Bft) 93,62 %
21.10.2018 18:44 13,6 C 11,1 C 10,0 C 69 % 1024,2 hPa 0,0 l/m 0 min 0 min 2 W/m 0,0 km/h (0 Bft) 97,87 %
21.10.2018 18:46 13,4 C 10,6 C 9,4 C 69 % 1024,2 hPa 0,0 l/m 0 min 0 min 0 W/m 0,0 km/h (0 Bft) 95,74 %
21.10.2018 18:48 13,4 C 10,6 C 9,4 C 70 % 1024,2 hPa 0,0 l/m 0 min 0 min 0 W/m 0,0 km/h (0 Bft) 97,87 %
21.10.2018 18:50 13,3 C 10,6 C 9,4 C 70 % 1024,2 hPa 0,0 l/m 0 min 0 min 0 W/m 0,0 km/h (0 Bft) 97,83 %
21.10.2018 18:52 13,2 C 10,6 C 9,4 C 70 % 1024,3 hPa 0,0 l/m 0 min 0 min 0 W/m 0,0 km/h (0 Bft) 93,62 %
21.10.2018 18:54 13,1 C 10,6 C 9,4 C 70 % 1024,2 hPa 0,0 l/m 0 min 0 min 0 W/m 0,0 km/h (0 Bft) 97,87 %
21.10.2018 18:56 13,0 C 10,6 C 9,4 C 70 % 1024,2 hPa 0,0 l/m 0 min 0 min 0 W/m 0,0 km/h (0 Bft) 95,74 %
21.10.2018 18:58 12,9 C 10,6 C 9,4 C 70 % 1024,2 hPa 0,0 l/m 0 min 0 min 0 W/m 0,0 km/h (0 Bft) 95,74 %
21.10.2018 19:00 12,8 C 10,6 C 9,4 C 71 % 1024,2 hPa 0,0 l/m 0 min 0 min 0 W/m 0,0 km/h (0 Bft) 97,87 %
21.10.2018 19:02 12,7 C 10,6 C 9,4 C 71 % 1024,2 hPa 0,0 l/m 0 min 0 min 0 W/m 0,0 km/h (0 Bft) 95,65 %
21.10.2018 19:04 12,6 C 10,0 C 9,4 C 72 % 1024,3 hPa 0,0 l/m 0 min 0 min 0 W/m 0,0 km/h (0 Bft) 97,87 %
21.10.2018 19:08 12,4 C 10,0 C 8,9 C 72 % 1024,3 hPa 0,0 l/m 0 min 0 min 0 W/m 0,0 km/h (0 Bft) 98,94 %
21.10.2018 19:10 12,3 C 9,4 C 8,9 C 73 % 1024,3 hPa 0,0 l/m 0 min 0 min 0 W/m 0,0 km/h (0 Bft) 100,00 %
21.10.2018 19:12 12,2 C 9,4 C 8,9 C 73 % 1024,3 hPa 0,0 l/m 0 min 0 min 0 W/m 0,0 km/h (0 Bft) 100,00 %
21.10.2018 19:14 12,1 C 9,4 C 8,9 C 74 % 1024,3 hPa 0,0 l/m 0 min 0 min 0 W/m 0,0 km/h (0 Bft) 97,87 %
21.10.2018 19:16 11,9 C 9,4 C 8,9 C 74 % 1024,3 hPa 0,0 l/m 0 min 0 min 0 W/m 0,0 km/h (0 Bft) 100,00 %
21.10.2018 19:18 11,9 C 9,4 C 8,9 C 74 % 1024,4 hPa 0,0 l/m 0 min 0 min 0 W/m 0,0 km/h (0 Bft) 100,00 %
21.10.2018 19:20 11,8 C 9,4 C 8,9 C 74 % 1024,3 hPa 0,0 l/m 0 min 0 min 0 W/m 0,0 km/h (0 Bft) 95,74 %
21.10.2018 19:22 11,7 C 9,4 C 8,9 C 74 % 1024,4 hPa 0,0 l/m 0 min 0 min 0 W/m 0,0 km/h (0 Bft) 100,00 %
21.10.2018 19:24 11,7 C 9,4 C 8,9 C 74 % 1024,4 hPa 0,0 l/m 0 min 0 min 0 W/m 0,0 km/h (0 Bft) 100,00 %
21.10.2018 19:26 11,6 C 9,4 C 8,9 C 74 % 1024,4 hPa 0,0 l/m 0 min 0 min 0 W/m 0,0 km/h (0 Bft) 100,00 %
21.10.2018 19:28 11,5 C 9,4 C 8,3 C 75 % 1024,4 hPa 0,0 l/m 0 min 0 min 0 W/m 0,0 km/h (0 Bft) 100,00 %
21.10.2018 19:30 11,4 C 9,4 C 8,3 C 75 % 1024,4 hPa 0,0 l/m 0 min 0 min 0 W/m 0,0 km/h (0 Bft) 100,00 %
21.10.2018 19:32 11,3 C 9,4 C 8,3 C 75 % 1024,4 hPa 0,0 l/m 0 min 0 min 0 W/m 0,0 km/h (0 Bft) 100,00 %
21.10.2018 19:34 11,2 C 8,9 C 8,3 C 75 % 1024,4 hPa 0,0 l/m 0 min 0 min 0 W/m 0,0 km/h (0 Bft) 100,00 %
21.10.2018 19:38 11,1 C 8,9 C 8,3 C 76 % 1024,4 hPa 0,0 l/m 0 min 0 min 0 W/m 0,0 km/h (0 Bft) 98,92 %
21.10.2018 19:40 11,0 C 8,9 C 8,3 C 76 % 1024,5 hPa 0,0 l/m 0 min 0 min 0 W/m 0,0 km/h (0 Bft) 100,00 %
21.10.2018 19:42 10,9 C 8,9 C 8,3 C 76 % 1024,4 hPa 0,0 l/m 0 min 0 min 0 W/m 0,0 km/h (0 Bft) 100,00 %
21.10.2018 19:44 10,9 C 8,9 C 7,8 C 76 % 1024,5 hPa 0,0 l/m 0 min 0 min 0 W/m 0,0 km/h (0 Bft) 100,00 %
21.10.2018 19:46 10,8 C 8,9 C 7,8 C 77 % 1024,5 hPa 0,0 l/m 0 min 0 min 0 W/m 0,0 km/h (0 Bft) 100,00 %
21.10.2018 19:48 10,7 C 8,9 C 7,8 C 77 % 1024,5 hPa 0,0 l/m 0 min 0 min 0 W/m 0,0 km/h (0 Bft) 100,00 %
21.10.2018 19:50 10,7 C 8,9 C 7,8 C 77 % 1024,6 hPa 0,0 l/m 0 min 0 min 0 W/m 0,0 km/h (0 Bft) 100,00 %
21.10.2018 19:52 10,6 C 8,9 C 7,8 C 77 % 1024,5 hPa 0,0 l/m 0 min 0 min 0 W/m 0,0 km/h (0 Bft) 100,00 %
21.10.2018 19:54 10,6 C 8,9 C 7,8 C 77 % 1024,5 hPa 0,0 l/m 0 min 0 min 0 W/m 0,0 km/h (0 Bft) 97,87 %
21.10.2018 19:56 10,5 C 8,9 C 7,8 C 77 % 1024,6 hPa 0,0 l/m 0 min 0 min 0 W/m 0,0 km/h (0 Bft) 100,00 %
21.10.2018 19:58 10,4 C 8,9 C 7,8 C 78 % 1024,6 hPa 0,0 l/m 0 min 0 min 0 W/m 0,0 km/h (0 Bft) 100,00 %
21.10.2018 20:00 10,4 C 8,9 C 7,8 C 78 % 1024,6 hPa 0,0 l/m 0 min 0 min 0 W/m 0,0 km/h (0 Bft) 100,00 %
21.10.2018 20:02 10,3 C 8,9 C 7,8 C 78 % 1024,6 hPa 0,0 l/m 0 min 0 min 0 W/m 0,0 km/h (0 Bft) 100,00 %
21.10.2018 20:04 10,3 C 8,3 C 7,8 C 78 % 1024,5 hPa 0,0 l/m 0 min 0 min 0 W/m 0,0 km/h (0 Bft) 97,87 %
21.10.2018 20:08 10,2 C 8,3 C 7,8 C 78 % 1024,5 hPa 0,0 l/m 0 min 0 min 0 W/m 0,0 km/h (0 Bft) 100,00 %
21.10.2018 20:10 10,1 C 8,3 C 7,8 C 79 % 1024,5 hPa 0,0 l/m 0 min 0 min 0 W/m 0,0 km/h (0 Bft) 100,00 %
21.10.2018 20:12 10,1 C 8,3 C 7,8 C 79 % 1024,4 hPa 0,0 l/m 0 min 0 min 0 W/m 0,0 km/h (0 Bft) 100,00 %
21.10.2018 20:14 10,0 C 8,3 C 7,8 C 79 % 1024,5 hPa 0,0 l/m 0 min 0 min 0 W/m 0,0 km/h (0 Bft) 97,87 %
21.10.2018 20:16 9,9 C 8,3 C 7,8 C 79 % 1024,6 hPa 0,0 l/m 0 min 0 min 0 W/m 0,0 km/h (0 Bft) 100,00 %
21.10.2018 20:18 9,9 C 8,3 C 7,8 C 79 % 1024,6 hPa 0,0 l/m 0 min 0 min 0 W/m 0,0 km/h (0 Bft) 100,00 %
21.10.2018 20:20 9,9 C 8,3 C 7,8 C 79 % 1024,6 hPa 0,0 l/m 0 min 0 min 0 W/m 0,0 km/h (0 Bft) 97,87 %
21.10.2018 20:22 9,8 C 8,3 C 7,8 C 80 % 1024,6 hPa 0,0 l/m 0 min 0 min 0 W/m 0,0 km/h (0 Bft) 97,83 %
21.10.2018 20:24 9,8 C 8,3 C 7,8 C 80 % 1024,5 hPa 0,0 l/m 0 min 0 min 0 W/m 0,0 km/h (0 Bft) 97,87 %
21.10.2018 20:26 9,7 C 8,3 C 7,2 C 80 % 1024,5 hPa 0,0 l/m 0 min 0 min 0 W/m 0,0 km/h (0 Bft) 100,00 %
21.10.2018 20:28 9,7 C 8,3 C 7,2 C 80 % 1024,5 hPa 0,0 l/m 0 min 0 min 0 W/m 0,0 km/h (0 Bft) 95,74 %
21.10.2018 20:30 9,7 C 7,8 C 7,2 C 80 % 1024,6 hPa 0,0 l/m 0 min 0 min 0 W/m 0,0 km/h (0 Bft) 95,74 %
21.10.2018 20:32 9,6 C 7,8 C 7,2 C 80 % 1024,6 hPa 0,0 l/m 0 min 0 min 0 W/m 0,0 km/h (0 Bft) 95,74 %
21.10.2018 20:34 9,6 C 7,8 C 7,2 C 80 % 1024,5 hPa 0,0 l/m 0 min 0 min 0 W/m 0,0 km/h (0 Bft) 95,65 %
21.10.2018 20:38 9,4 C 7,8 C 7,2 C 81 % 1024,6 hPa 0,0 l/m 0 min 0 min 0 W/m 0,0 km/h (0 Bft) 95,74 %
21.10.2018 20:40 9,4 C 7,8 C 7,2 C 81 % 1024,5 hPa 0,0 l/m 0 min 0 min 0 W/m 0,0 km/h (0 Bft) 97,87 %
21.10.2018 20:42 9,4 C 7,8 C 7,2 C 81 % 1024,6 hPa 0,0 l/m 0 min 0 min 0 W/m 0,0 km/h (0 Bft) 97,87 %
21.10.2018 20:44 9,3 C 7,8 C 7,2 C 81 % 1024,6 hPa 0,0 l/m 0 min 0 min 0 W/m 0,0 km/h (0 Bft) 97,87 %
21.10.2018 20:46 9,3 C 7,8 C 7,2 C 81 % 1024,5 hPa 0,0 l/m 0 min 0 min 0 W/m 0,0 km/h (0 Bft) 95,65 %
21.10.2018 20:48 9,2 C 7,8 C 7,2 C 81 % 1024,6 hPa 0,0 l/m 0 min 0 min 0 W/m 0,0 km/h (0 Bft) 97,87 %
21.10.2018 20:50 9,2 C 7,8 C 7,2 C 81 % 1024,6 hPa 0,0 l/m 0 min 0 min 0 W/m 0,0 km/h (0 Bft) 97,87 %
21.10.2018 20:52 9,2 C 7,8 C 7,2 C 81 % 1024,6 hPa 0,0 l/m 0 min 0 min 0 W/m 0,0 km/h (0 Bft) 95,74 %
21.10.2018 20:54 9,1 C 7,8 C 7,2 C 81 % 1024,6 hPa 0,0 l/m 0 min 0 min 0 W/m 0,0 km/h (0 Bft) 97,87 %
21.10.2018 20:56 9,1 C 7,8 C 7,2 C 81 % 1024,5 hPa 0,0 l/m 0 min 0 min 0 W/m 0,0 km/h (0 Bft) 95,74 %
21.10.2018 20:58 9,1 C 7,8 C 7,2 C 82 % 1024,5 hPa 0,0 l/m 0 min 0 min 0 W/m 0,0 km/h (0 Bft) 97,83 %
21.10.2018 21:00 9,0 C 7,8 C 7,2 C 82 % 1024,5 hPa 0,0 l/m 0 min 0 min 0 W/m 0,0 km/h (0 Bft) 100,00 %
21.10.2018 21:02 9,0 C 7,8 C 7,2 C 82 % 1024,5 hPa 0,0 l/m 0 min 0 min 0 W/m 0,0 km/h (0 Bft) 100,00 %
21.10.2018 21:04 8,9 C 7,8 C 7,2 C 82 % 1024,4 hPa 0,0 l/m 0 min 0 min 0 W/m 0,0 km/h (0 Bft) 97,83 %
21.10.2018 21:08 8,9 C 7,2 C 7,2 C 82 % 1024,4 hPa 0,0 l/m 0 min 0 min 0 W/m 0,0 km/h (0 Bft) 98,00 %
21.10.2018 21:10 8,8 C 7,2 C 7,2 C 82 % 1024,4 hPa 0,0 l/m 0 min 0 min 0 W/m 0,0 km/h (0 Bft) 95,74 %
21.10.2018 21:12 8,8 C 7,2 C 6,7 C 82 % 1024,4 hPa 0,0 l/m 0 min 0 min 0 W/m 0,0 km/h (0 Bft) 97,87 %
21.10.2018 21:14 8,7 C 7,2 C 6,7 C 82 % 1024,4 hPa 0,0 l/m 0 min 0 min 0 W/m 0,0 km/h (0 Bft) 95,74 %
21.10.2018 21:16 8,7 C 7,2 C 6,7 C 82 % 1024,4 hPa 0,0 l/m 0 min 0 min 0 W/m 0,0 km/h (0 Bft) 95,12 %
21.10.2018 21:18 8,7 C 7,2 C 6,7 C 82 % 1024,3 hPa 0,0 l/m 0 min 0 min 0 W/m 0,0 km/h (0 Bft) 97,87 %
21.10.2018 21:20 8,7 C 7,2 C 6,7 C 82 % 1024,4 hPa 0,0 l/m 0 min 0 min 0 W/m 0,0 km/h (0 Bft) 97,87 %
21.10.2018 21:22 8,6 C 7,2 C 6,7 C 82 % 1024,4 hPa 0,0 l/m 0 min 0 min 0 W/m 0,0 km/h (0 Bft) 97,87 %
21.10.2018 21:24 8,6 C 7,2 C 6,7 C 82 % 1024,3 hPa 0,0 l/m 0 min 0 min 0 W/m 0,0 km/h (0 Bft) 95,74 %
21.10.2018 21:26 8,6 C 7,2 C 6,7 C 83 % 1024,4 hPa 0,0 l/m 0 min 0 min 0 W/m 0,0 km/h (0 Bft) 97,87 %
21.10.2018 21:28 8,5 C 7,2 C 6,7 C 83 % 1024,4 hPa 0,0 l/m 0 min 0 min 0 W/m 0,0 km/h (0 Bft) 97,83 %
21.10.2018 21:30 8,4 C 6,7 C 6,7 C 83 % 1024,4 hPa 0,0 l/m 0 min 0 min 0 W/m 0,0 km/h (0 Bft) 95,74 %
21.10.2018 21:32 8,4 C 6,7 C 6,7 C 83 % 1024,5 hPa 0,0 l/m 0 min 0 min 0 W/m 0,0 km/h (0 Bft) 95,92 %
21.10.2018 21:34 8,4 C 6,7 C 6,7 C 83 % 1024,6 hPa 0,0 l/m 0 min 0 min 0 W/m 0,0 km/h (0 Bft) 97,87 %
21.10.2018 21:38 8,3 C 7,2 C 6,7 C 83 % 1024,5 hPa 0,0 l/m 0 min 0 min 0 W/m 0,0 km/h (0 Bft) 96,77 %
21.10.2018 21:40 8,3 C 7,2 C 6,7 C 83 % 1024,6 hPa 0,0 l/m 0 min 0 min 0 W/m 0,0 km/h (0 Bft) 97,87 %
21.10.2018 21:42 8,3 C 7,2 C 6,7 C 83 % 1024,6 hPa 0,0 l/m 0 min 0 min 0 W/m 0,0 km/h (0 Bft) 97,87 %
21.10.2018 21:44 8,2 C 7,2 C 6,7 C 83 % 1024,6 hPa 0,0 l/m 0 min 0 min 0 W/m 0,0 km/h (0 Bft) 97,87 %
21.10.2018 21:46 8,2 C 7,2 C 6,7 C 83 % 1024,6 hPa 0,0 l/m 0 min 0 min 0 W/m 0,0 km/h (0 Bft) 95,74 %
21.10.2018 21:48 8,2 C 7,2 C 6,7 C 83 % 1024,6 hPa 0,0 l/m 0 min 0 min 0 W/m 0,0 km/h (0 Bft) 97,87 %
21.10.2018 21:50 8,2 C 6,7 C 6,7 C 84 % 1024,6 hPa 0,0 l/m 0 min 0 min 0 W/m 0,0 km/h (0 Bft) 95,65 %
21.10.2018 21:52 8,1 C 6,7 C 6,7 C 84 % 1024,6 hPa 0,0 l/m 0 min 0 min 0 W/m 0,0 km/h (0 Bft) 97,87 %
21.10.2018 21:54 8,1 C 6,7 C 6,7 C 84 % 1024,6 hPa 0,0 l/m 0 min 0 min 0 W/m 0,0 km/h (0 Bft) 95,74 %
21.10.2018 21:56 8,1 C 6,7 C 6,1 C 84 % 1024,6 hPa 0,0 l/m 0 min 0 min 0 W/m 0,0 km/h (0 Bft) 97,87 %
21.10.2018 21:58 8,0 C 6,7 C 6,7 C 84 % 1024,6 hPa 0,0 l/m 0 min 0 min 0 W/m 0,0 km/h (0 Bft) 97,87 %
21.10.2018 22:00 8,0 C 6,7 C 6,1 C 84 % 1024,6 hPa 0,0 l/m 0 min 0 min 0 W/m 0,0 km/h (0 Bft) 100,00 %
21.10.2018 22:02 7,9 C 6,7 C 6,1 C 84 % 1024,6 hPa 0,0 l/m 0 min 0 min 0 W/m 0,0 km/h (0 Bft) 97,83 %
21.10.2018 22:04 7,9 C 6,7 C 6,1 C 84 % 1024,6 hPa 0,0 l/m 0 min 0 min 0 W/m 0,0 km/h (0 Bft) 95,74 %
21.10.2018 22:08 7,9 C 6,7 C 6,1 C 84 % 1024,6 hPa 0,0 l/m 0 min 0 min 0 W/m 0,0 km/h (0 Bft) 97,87 %
21.10.2018 22:10 7,8 C 6,7 C 6,1 C 84 % 1024,6 hPa 0,0 l/m 0 min 0 min 0 W/m 0,0 km/h (0 Bft) 95,74 %
21.10.2018 22:12 7,8 C 6,7 C 6,1 C 84 % 1024,5 hPa 0,0 l/m 0 min 0 min 0 W/m 0,0 km/h (0 Bft) 93,48 %
21.10.2018 22:14 7,8 C 6,7 C 6,1 C 84 % 1024,5 hPa 0,0 l/m 0 min 0 min 0 W/m 0,0 km/h (0 Bft) 95,74 %
21.10.2018 22:16 7,8 C 6,7 C 6,1 C 84 % 1024,6 hPa 0,0 l/m 0 min 0 min 0 W/m 0,0 km/h (0 Bft) 95,74 %
21.10.2018 22:18 7,7 C 6,7 C 6,1 C 84 % 1024,6 hPa 0,0 l/m 0 min 0 min 0 W/m 0,0 km/h (0 Bft) 95,74 %
21.10.2018 22:20 7,7 C 6,7 C 6,1 C 85 % 1024,5 hPa 0,0 l/m 0 min 0 min 0 W/m 0,0 km/h (0 Bft) 93,62 %
21.10.2018 22:22 7,7 C 6,7 C 6,1 C 85 % 1024,5 hPa 0,0 l/m 0 min 0 min 0 W/m 0,0 km/h (0 Bft) 95,74 %
21.10.2018 22:24 7,7 C 6,7 C 6,1 C 85 % 1024,5 hPa 0,0 l/m 0 min 0 min 0 W/m 0,0 km/h (0 Bft) 95,65 %
21.10.2018 22:26 7,6 C 6,7 C 6,1 C 85 % 1024,5 hPa 0,0 l/m 0 min 0 min 0 W/m 0,0 km/h (0 Bft) 95,74 %
21.10.2018 22:28 7,6 C 6,7 C 6,1 C 85 % 1024,5 hPa 0,0 l/m 0 min 0 min 0 W/m 0,0 km/h (0 Bft) 95,74 %
21.10.2018 22:30 7,6 C 6,7 C 6,1 C 85 % 1024,5 hPa 0,0 l/m 0 min 0 min 0 W/m 0,0 km/h (0 Bft) 95,74 %
21.10.2018 22:32 7,6 C 6,7 C 6,1 C 85 % 1024,4 hPa 0,0 l/m 0 min 0 min 0 W/m 0,0 km/h (0 Bft) 95,92 %
21.10.2018 22:34 7,5 C 6,1 C 6,1 C 85 % 1024,4 hPa 0,0 l/m 0 min 0 min 0 W/m 0,0 km/h (0 Bft) 95,74 %
21.10.2018 22:38 7,4 C 6,1 C 6,1 C 85 % 1024,4 hPa 0,0 l/m 0 min 0 min 0 W/m 0,0 km/h (0 Bft) 96,77 %
21.10.2018 22:40 7,4 C 6,1 C 6,1 C 85 % 1024,4 hPa 0,0 l/m 0 min 0 min 0 W/m 0,0 km/h (0 Bft) 95,74 %
21.10.2018 22:42 7,4 C 6,1 C 6,1 C 85 % 1024,4 hPa 0,0 l/m 0 min 0 min 0 W/m 0,0 km/h (0 Bft) 95,74 %
21.10.2018 22:44 7,4 C 6,1 C 6,1 C 85 % 1024,4 hPa 0,0 l/m 0 min 0 min 0 W/m 0,0 km/h (0 Bft) 95,74 %
21.10.2018 22:46 7,3 C 6,1 C 6,1 C 85 % 1024,4 hPa 0,0 l/m 0 min 0 min 0 W/m 0,0 km/h (0 Bft) 97,87 %
21.10.2018 22:48 7,3 C 6,1 C 6,1 C 85 % 1024,5 hPa 0,0 l/m 0 min 0 min 0 W/m 0,0 km/h (0 Bft) 93,48 %
21.10.2018 22:50 7,3 C 6,1 C 6,1 C 85 % 1024,5 hPa 0,0 l/m 0 min 0 min 0 W/m 0,0 km/h (0 Bft) 97,87 %
21.10.2018 22:52 7,3 C 6,1 C 6,1 C 85 % 1024,5 hPa 0,0 l/m 0 min 0 min 0 W/m 0,0 km/h (0 Bft) 97,87 %
21.10.2018 22:54 7,2 C 6,1 C 6,1 C 85 % 1024,6 hPa 0,0 l/m 0 min 0 min 0 W/m 0,0 km/h (0 Bft) 97,87 %
21.10.2018 22:56 7,2 C 6,1 C 6,1 C 86 % 1024,6 hPa 0,0 l/m 0 min 0 min 0 W/m 0,0 km/h (0 Bft) 97,87 %
21.10.2018 22:58 7,2 C 6,1 C 6,1 C 85 % 1024,6 hPa 0,0 l/m 0 min 0 min 0 W/m 0,0 km/h (0 Bft) 95,65 %
21.10.2018 23:00 7,2 C 6,1 C 5,6 C 86 % 1024,5 hPa 0,0 l/m 0 min 0 min 0 W/m 0,0 km/h (0 Bft) 97,87 %
21.10.2018 23:02 7,2 C 6,1 C 6,1 C 86 % 1024,6 hPa 0,0 l/m 0 min 0 min 0 W/m 0,0 km/h (0 Bft) 95,74 %
21.10.2018 23:04 7,1 C 6,1 C 6,1 C 86 % 1024,6 hPa 0,0 l/m 0 min 0 min 0 W/m 0,0 km/h (0 Bft) 95,74 %
21.10.2018 23:08 7,1 C 6,1 C 5,6 C 86 % 1024,6 hPa 0,0 l/m 0 min 0 min 0 W/m 0,0 km/h (0 Bft) 95,74 %
21.10.2018 23:10 7,1 C 6,1 C 5,6 C 86 % 1024,7 hPa 0,0 l/m 0 min 0 min 0 W/m 0,0 km/h (0 Bft) 97,83 %
21.10.2018 23:12 7,0 C 6,1 C 5,6 C 86 % 1024,6 hPa 0,0 l/m 0 min 0 min 0 W/m 0,0 km/h (0 Bft) 97,87 %
21.10.2018 23:14 7,0 C 6,1 C 5,6 C 86 % 1024,6 hPa 0,0 l/m 0 min 0 min 0 W/m 0,0 km/h (0 Bft) 95,74 %
21.10.2018 23:16 7,0 C 6,1 C 6,1 C 86 % 1024,6 hPa 0,0 l/m 0 min 0 min 0 W/m 0,0 km/h (0 Bft) 97,87 %
21.10.2018 23:18 6,9 C 6,1 C 6,1 C 86 % 1024,6 hPa 0,0 l/m 0 min 0 min 0 W/m 0,0 km/h (0 Bft) 97,87 %
21.10.2018 23:20 6,9 C 6,1 C 6,1 C 87 % 1024,6 hPa 0,0 l/m 0 min 0 min 0 W/m 0,0 km/h (0 Bft) 97,87 %
21.10.2018 23:22 6,9 C 6,1 C 5,6 C 87 % 1024,5 hPa 0,0 l/m 0 min 0 min 0 W/m 0,0 km/h (0 Bft) 97,83 %
21.10.2018 23:24 6,9 C 6,1 C 5,6 C 87 % 1024,6 hPa 0,0 l/m 0 min 0 min 0 W/m 0,0 km/h (0 Bft) 97,87 %
21.10.2018 23:26 6,9 C 6,1 C 5,6 C 87 % 1024,7 hPa 0,0 l/m 0 min 0 min 0 W/m 0,0 km/h (0 Bft) 97,87 %
21.10.2018 23:28 6,9 C 6,1 C 5,6 C 87 % 1024,8 hPa 0,0 l/m 0 min 0 min 0 W/m 0,0 km/h (0 Bft) 100,00 %
21.10.2018 23:30 6,8 C 6,1 C 5,6 C 87 % 1024,6 hPa 0,0 l/m 0 min 0 min 0 W/m 0,0 km/h (0 Bft) 100,00 %
21.10.2018 23:32 6,8 C 5,6 C 5,6 C 87 % 1024,7 hPa 0,0 l/m 0 min 0 min 0 W/m 0,0 km/h (0 Bft) 97,87 %
21.10.2018 23:34 6,8 C 5,6 C 5,6 C 87 % 1024,8 hPa 0,0 l/m 0 min 0 min 0 W/m 0,0 km/h (0 Bft) 97,83 %
21.10.2018 23:38 6,8 C 6,1 C 5,6 C 87 % 1024,8 hPa 0,0 l/m 0 min 0 min 0 W/m 0,0 km/h (0 Bft) 100,00 %
21.10.2018 23:40 6,7 C 6,1 C 5,6 C 87 % 1024,8 hPa 0,0 l/m 0 min 0 min 0 W/m 0,0 km/h (0 Bft) 100,00 %
21.10.2018 23:42 6,7 C 5,6 C 5,6 C 87 % 1024,8 hPa 0,0 l/m 0 min 0 min 0 W/m 0,0 km/h (0 Bft) 100,00 %
21.10.2018 23:44 6,7 C 6,1 C 5,6 C 87 % 1024,8 hPa 0,0 l/m 0 min 0 min 0 W/m 0,0 km/h (0 Bft) 97,87 %
21.10.2018 23:46 6,7 C 6,1 C 5,6 C 88 % 1024,8 hPa 0,0 l/m 0 min 0 min 0 W/m 0,0 km/h (0 Bft) 100,00 %
21.10.2018 23:48 6,7 C 5,6 C 5,6 C 88 % 1024,8 hPa 0,0 l/m 0 min 0 min 0 W/m 0,0 km/h (0 Bft) 100,00 %
21.10.2018 23:50 6,7 C 5,6 C 5,6 C 88 % 1024,8 hPa 0,0 l/m 0 min 0 min 0 W/m 0,0 km/h (0 Bft) 100,00 %
21.10.2018 23:52 6,7 C 5,6 C 5,6 C 88 % 1024,8 hPa 0,0 l/m 0 min 0 min 0 W/m 0,0 km/h (0 Bft) 93,62 %
21.10.2018 23:54 6,7 C 6,1 C 6,1 C 88 % 1024,8 hPa 0,0 l/m 0 min 0 min 0 W/m 0,0 km/h (0 Bft) 97,87 %
21.10.2018 23:56 6,7 C 6,1 C 6,1 C 88 % 1024,8 hPa 0,0 l/m 0 min 0 min 0 W/m 0,0 km/h (0 Bft) 97,87 %
21.10.2018 23:58 6,7 C 6,1 C 6,1 C 88 % 1024,8 hPa 0,0 l/m 0 min 0 min 0 W/m 0,0 km/h (0 Bft) 100,00 %
_ Min-Zeit 04:58 04:00 04:14 16:10 18:40 - - - - 00:00 06:00
Minimum _ 3,4 C 2,8 C 2,8 C 59 % 1024,1 hPa - - - - 0,0 km/h (0 Bft) 91,30 %
_ Max-Zeit 16:38 12:08 15:26 10:40 00:00 00:00 13:08 00:00 13:46 13:26 00:26
Maximum _ 16,2 C 21,7 C 13,3 C 98 % 1028,8 hPa 0,0 l/m 4 min 0 min 426 W/m 19,3 km/h
S-SO (3 Bft)
100,00 %
Durchschnitt _ 8,7 C 8,9 C 7,2 C 83 % 1026,5 hPa #0,0 l/m #3:36 h #0 min. 152 W/m 4,1 km/h (1 Bft) 97,51 %
© 2018 W. Hausmann